Wetterdaten: Samstag, 29.12.2012
Datum Zeit Temp. Innen Temp. Aussen +5cm Feuchte Auss Luftdruck Regen Sonnenschein T Regendauer ET UV Solar Windben
29.12.2012 00:00 14,4 C 9,0 C 5,5 C 96 % 1019,9 hPa 0,0 l/m 0 min 0 min 0,000 mm 0,0 UV-I 0 W/m 0,0 km/h (0 Bft)
29.12.2012 00:02 14,4 C 9,1 C 5,5 C 96 % 1019,9 hPa 0,0 l/m 0 min 0 min 0,000 mm 0,0 UV-I 0 W/m 0,0 km/h (0 Bft)
29.12.2012 00:06 14,4 C 9,0 C 5,4 C 96 % 1019,9 hPa 0,0 l/m 0 min 0 min 0,000 mm 0,0 UV-I 0 W/m 0,0 km/h (0 Bft)
29.12.2012 00:08 14,4 C 8,9 C 5,3 C 96 % 1019,9 hPa 0,0 l/m 0 min 0 min 0,000 mm 0,0 UV-I 0 W/m 0,0 km/h (0 Bft)
29.12.2012 00:10 14,4 C 8,9 C 5,3 C 96 % 1019,9 hPa 0,0 l/m 0 min 0 min 0,000 mm 0,0 UV-I 0 W/m 10,4 km/h (2 Bft)
29.12.2012 00:12 14,4 C 8,9 C 5,2 C 96 % 1019,9 hPa 0,0 l/m 0 min 0 min 0,000 mm 0,0 UV-I 0 W/m 0,0 km/h (0 Bft)
29.12.2012 00:14 14,4 C 8,9 C 5,2 C 96 % 1019,9 hPa 0,0 l/m 0 min 0 min 0,000 mm 0,0 UV-I 0 W/m 0,0 km/h (0 Bft)
29.12.2012 00:16 14,4 C 8,8 C 5,3 C 96 % 1019,6 hPa 0,0 l/m 0 min 0 min 0,000 mm 0,0 UV-I 0 W/m 8,8 km/h (2 Bft)
29.12.2012 00:18 14,3 C 8,8 C 5,2 C 96 % 1019,6 hPa 0,0 l/m 0 min 0 min 0,000 mm 0,0 UV-I 0 W/m 0,0 km/h (0 Bft)
29.12.2012 00:20 14,4 C 8,9 C 5,1 C 96 % 1019,6 hPa 0,0 l/m 0 min 0 min 0,000 mm 0,0 UV-I 0 W/m 12,8 km/h (3 Bft)
29.12.2012 00:22 14,3 C 8,8 C 5,1 C 96 % 1019,6 hPa 0,0 l/m 0 min 0 min 0,000 mm 0,0 UV-I 0 W/m 0,0 km/h (0 Bft)
29.12.2012 00:24 14,3 C 8,8 C 5,0 C 96 % 1019,6 hPa 0,0 l/m 0 min 0 min 0,000 mm 0,0 UV-I 0 W/m 0,0 km/h (0 Bft)
29.12.2012 00:26 14,4 C 8,7 C 5,1 C 96 % 1019,6 hPa 0,0 l/m 0 min 0 min 0,000 mm 0,0 UV-I 0 W/m 12,8 km/h (3 Bft)
29.12.2012 00:28 14,3 C 8,7 C 5,0 C 96 % 1019,6 hPa 0,0 l/m 0 min 0 min 0,000 mm 0,0 UV-I 0 W/m 0,0 km/h (0 Bft)
29.12.2012 00:30 14,3 C 8,7 C 5,0 C 96 % 1019,6 hPa 0,0 l/m 0 min 0 min 0,000 mm 0,0 UV-I 0 W/m 0,0 km/h (0 Bft)
29.12.2012 00:32 14,4 C 8,7 C 5,0 C 96 % 1019,6 hPa 0,0 l/m 0 min 0 min 0,000 mm 0,0 UV-I 0 W/m 0,0 km/h (0 Bft)
29.12.2012 00:34 14,3 C 8,7 C 5,0 C 96 % 1019,6 hPa 0,0 l/m 0 min 0 min 0,000 mm 0,0 UV-I 0 W/m 0,0 km/h (0 Bft)
29.12.2012 00:36 14,3 C 8,7 C 5,0 C 96 % 1019,2 hPa 0,0 l/m 0 min 0 min 0,000 mm 0,0 UV-I 0 W/m 15,2 km/h (3 Bft)
29.12.2012 00:38 14,4 C 8,6 C 4,9 C 96 % 1019,2 hPa 0,0 l/m 0 min 0 min 0,000 mm 0,0 UV-I 0 W/m 0,0 km/h (0 Bft)
29.12.2012 00:40 14,3 C 8,7 C 4,9 C 96 % 1019,2 hPa 0,0 l/m 0 min 0 min 0,000 mm 0,0 UV-I 0 W/m 0,0 km/h (0 Bft)
29.12.2012 00:42 14,3 C 8,7 C 4,9 C 96 % 1019,2 hPa 0,0 l/m 0 min 0 min 0,000 mm 0,0 UV-I 0 W/m 0,0 km/h (0 Bft)
29.12.2012 00:44 14,4 C 8,7 C 4,8 C 96 % 1019,2 hPa 0,0 l/m 0 min 0 min 0,000 mm 0,0 UV-I 0 W/m 0,0 km/h (0 Bft)
29.12.2012 00:46 14,4 C 8,6 C 4,7 C 96 % 1019,2 hPa 0,0 l/m 0 min 0 min 0,000 mm 0,0 UV-I 0 W/m 0,0 km/h (0 Bft)
29.12.2012 00:48 14,4 C 8,6 C 4,7 C 96 % 1019,2 hPa 0,0 l/m 0 min 0 min 0,000 mm 0,0 UV-I 0 W/m 12,8 km/h (3 Bft)
29.12.2012 00:50 14,4 C 8,5 C 4,6 C 96 % 1019,2 hPa 0,0 l/m 0 min 0 min 0,000 mm 0,0 UV-I 0 W/m 0,0 km/h (0 Bft)
29.12.2012 00:52 14,4 C 8,5 C 4,7 C 96 % 1019,2 hPa 0,0 l/m 0 min 0 min 0,000 mm 0,0 UV-I 0 W/m 0,0 km/h (0 Bft)
29.12.2012 00:54 14,3 C 8,5 C 4,6 C 96 % 1019,2 hPa 0,0 l/m 0 min 0 min 0,000 mm 0,0 UV-I 0 W/m 9,6 km/h (2 Bft)
29.12.2012 00:56 14,4 C 8,5 C 4,5 C 96 % 1019,2 hPa 0,0 l/m 0 min 0 min 0,000 mm 0,0 UV-I 0 W/m 0,0 km/h (0 Bft)
29.12.2012 00:58 14,3 C 8,5 C 4,5 C 96 % 1019,2 hPa 0,0 l/m 0 min 0 min 0,000 mm 0,0 UV-I 0 W/m 0,0 km/h (0 Bft)
29.12.2012 01:00 14,3 C 8,5 C 4,6 C 96 % 1019,2 hPa 0,0 l/m 0 min 0 min 0,000 mm 0,0 UV-I 0 W/m 0,0 km/h (0 Bft)
29.12.2012 01:02 14,3 C 8,5 C 4,6 C 96 % 1019,2 hPa 0,0 l/m 0 min 0 min 0,000 mm 0,0 UV-I 0 W/m 0,0 km/h (0 Bft)
29.12.2012 01:06 14,3 C 8,6 C 4,7 C 96 % 1019,2 hPa 0,0 l/m 0 min 0 min 0,000 mm 0,0 UV-I 0 W/m 11,2 km/h (2 Bft)
29.12.2012 01:08 14,3 C 8,7 C 4,7 C 96 % 1019,2 hPa 0,0 l/m 0 min 0 min 0,000 mm 0,0 UV-I 0 W/m 21,6 km/h (4 Bft)
29.12.2012 01:10 14,3 C 8,7 C 4,6 C 96 % 1019,2 hPa 0,0 l/m 0 min 0 min 0,000 mm 0,0 UV-I 0 W/m 0,0 km/h (0 Bft)
29.12.2012 01:12 14,3 C 8,8 C 4,7 C 96 % 1019,2 hPa 0,0 l/m 0 min 0 min 0,000 mm 0,0 UV-I 0 W/m 10,4 km/h (2 Bft)
29.12.2012 01:14 14,3 C 8,8 C 4,9 C 96 % 1019,2 hPa 0,0 l/m 0 min 0 min 0,000 mm 0,0 UV-I 0 W/m 0,0 km/h (0 Bft)
29.12.2012 01:16 14,3 C 8,9 C 4,9 C 96 % 1018,9 hPa 0,0 l/m 0 min 0 min 0,000 mm 0,0 UV-I 0 W/m 21,6 km/h (4 Bft)
29.12.2012 01:18 14,3 C 9,1 C 5,0 C 96 % 1018,9 hPa 0,0 l/m 0 min 0 min 0,000 mm 0,0 UV-I 0 W/m 17,6 km/h (3 Bft)
29.12.2012 01:20 14,3 C 9,1 C 5,0 C 96 % 1018,9 hPa 0,0 l/m 0 min 0 min 0,000 mm 0,0 UV-I 0 W/m 13,6 km/h (3 Bft)
29.12.2012 01:22 14,4 C 9,2 C 5,0 C 96 % 1018,9 hPa 0,0 l/m 0 min 0 min 0,000 mm 0,0 UV-I 0 W/m 19,2 km/h (3 Bft)
29.12.2012 01:24 14,3 C 9,2 C 5,1 C 96 % 1018,9 hPa 0,0 l/m 0 min 0 min 0,000 mm 0,0 UV-I 0 W/m 0,0 km/h (0 Bft)
29.12.2012 01:26 14,3 C 9,3 C 5,2 C 96 % 1018,9 hPa 0,0 l/m 0 min 0 min 0,000 mm 0,0 UV-I 0 W/m 24,8 km/h (4 Bft)
29.12.2012 01:28 14,4 C 9,5 C 5,3 C 96 % 1018,9 hPa 0,0 l/m 0 min 0 min 0,000 mm 0,0 UV-I 0 W/m 20,8 km/h (4 Bft)
29.12.2012 01:30 14,4 C 9,5 C 5,3 C 96 % 1018,9 hPa 0,0 l/m 0 min 0 min 0,000 mm 0,0 UV-I 0 W/m 39,4 km/h (6 Bft)
29.12.2012 01:32 14,4 C 9,5 C 5,4 C 96 % 1018,9 hPa 0,0 l/m 0 min 0 min 0,000 mm 0,0 UV-I 0 W/m 19,2 km/h (3 Bft)
29.12.2012 01:34 14,4 C 9,6 C 5,4 C 96 % 1018,9 hPa 0,0 l/m 0 min 0 min 0,000 mm 0,0 UV-I 0 W/m 14,4 km/h (3 Bft)
29.12.2012 01:36 14,4 C 9,6 C 5,4 C 96 % 1018,6 hPa 0,0 l/m 0 min 0 min 0,000 mm 0,0 UV-I 0 W/m 39,4 km/h (6 Bft)
29.12.2012 01:38 14,4 C 9,7 C 5,5 C 96 % 1018,6 hPa 0,0 l/m 0 min 0 min 0,000 mm 0,0 UV-I 0 W/m 0,0 km/h (0 Bft)
29.12.2012 01:40 14,4 C 9,7 C 5,4 C 96 % 1018,6 hPa 0,0 l/m 0 min 0 min 0,000 mm 0,0 UV-I 0 W/m 12,0 km/h (2 Bft)
29.12.2012 01:42 14,4 C 9,8 C 5,5 C 96 % 1018,6 hPa 0,0 l/m 0 min 0 min 0,000 mm 0,0 UV-I 0 W/m 0,0 km/h (0 Bft)
29.12.2012 01:44 14,4 C 9,9 C 5,5 C 96 % 1018,6 hPa 0,0 l/m 0 min 0 min 0,000 mm 0,0 UV-I 0 W/m 22,4 km/h (4 Bft)
29.12.2012 01:46 14,4 C 9,9 C 5,5 C 96 % 1018,6 hPa 0,0 l/m 0 min 0 min 0,000 mm 0,0 UV-I 0 W/m 0,0 km/h (0 Bft)
29.12.2012 01:48 14,4 C 9,9 C 5,6 C 96 % 1018,6 hPa 0,0 l/m 0 min 0 min 0,000 mm 0,0 UV-I 0 W/m 11,2 km/h (2 Bft)
29.12.2012 01:50 14,4 C 9,9 C 5,6 C 96 % 1018,6 hPa 0,0 l/m 0 min 0 min 0,000 mm 0,0 UV-I 0 W/m 13,6 km/h (3 Bft)
29.12.2012 01:52 14,4 C 9,9 C 5,7 C 96 % 1018,6 hPa 0,0 l/m 0 min 0 min 0,000 mm 0,0 UV-I 0 W/m 10,4 km/h (2 Bft)
29.12.2012 01:54 14,4 C 9,9 C 5,6 C 96 % 1018,6 hPa 0,0 l/m 0 min 0 min 0,000 mm 0,0 UV-I 0 W/m 16,0 km/h (3 Bft)
29.12.2012 01:56 14,4 C 9,9 C 5,7 C 95 % 1018,7 hPa 0,0 l/m 0 min 0 min 0,000 mm 0,0 UV-I 0 W/m 13,6 km/h (3 Bft)
29.12.2012 01:58 14,4 C 10,0 C 5,7 C 95 % 1018,7 hPa 0,0 l/m 0 min 0 min 0,000 mm 0,0 UV-I 0 W/m 16,8 km/h (3 Bft)
29.12.2012 02:00 14,4 C 10,0 C 5,8 C 95 % 1018,7 hPa 0,0 l/m 0 min 0 min 0,000 mm 0,0 UV-I 0 W/m 17,6 km/h (3 Bft)
29.12.2012 02:02 14,4 C 10,1 C 5,8 C 95 % 1018,7 hPa 0,0 l/m 0 min 0 min 0,000 mm 0,0 UV-I 0 W/m 0,0 km/h (0 Bft)
29.12.2012 02:04 14,4 C 10,0 C 5,8 C 95 % 1018,7 hPa 0,0 l/m 0 min 0 min 0,000 mm 0,0 UV-I 0 W/m 19,2 km/h (3 Bft)
29.12.2012 02:06 14,4 C 10,0 C 5,9 C 95 % 1018,7 hPa 0,0 l/m 0 min 0 min 0,000 mm 0,0 UV-I 0 W/m 9,6 km/h (2 Bft)
29.12.2012 02:08 14,4 C 10,0 C 5,9 C 95 % 1018,7 hPa 0,0 l/m 0 min 0 min 0,000 mm 0,0 UV-I 0 W/m 9,6 km/h (2 Bft)
29.12.2012 02:10 14,3 C 10,0 C 6,0 C 95 % 1018,7 hPa 0,0 l/m 0 min 0 min 0,000 mm 0,0 UV-I 0 W/m 14,4 km/h (3 Bft)
29.12.2012 02:12 14,4 C 10,0 C 6,1 C 95 % 1018,7 hPa 0,0 l/m 0 min 0 min 0,000 mm 0,0 UV-I 0 W/m 24,0 km/h (4 Bft)
29.12.2012 02:14 14,3 C 10,0 C 6,1 C 95 % 1018,7 hPa 0,0 l/m 0 min 0 min 0,000 mm 0,0 UV-I 0 W/m 15,2 km/h (3 Bft)
29.12.2012 02:16 14,3 C 10,0 C 6,0 C 95 % 1018,4 hPa 0,0 l/m 0 min 0 min 0,000 mm 0,0 UV-I 0 W/m 14,4 km/h (3 Bft)
29.12.2012 02:18 14,3 C 10,0 C 6,0 C 95 % 1018,4 hPa 0,0 l/m 0 min 0 min 0,000 mm 0,0 UV-I 0 W/m 9,6 km/h (2 Bft)
29.12.2012 02:20 14,3 C 10,0 C 6,0 C 95 % 1018,4 hPa 0,0 l/m 0 min 0 min 0,000 mm 0,0 UV-I 0 W/m 9,6 km/h (2 Bft)
29.12.2012 02:22 14,3 C 10,0 C 6,1 C 95 % 1018,4 hPa 0,0 l/m 0 min 0 min 0,000 mm 0,0 UV-I 0 W/m 10,4 km/h (2 Bft)
29.12.2012 02:24 14,3 C 10,0 C 6,1 C 95 % 1018,4 hPa 0,0 l/m 0 min 0 min 0,000 mm 0,0 UV-I 0 W/m 13,6 km/h (3 Bft)
29.12.2012 02:26 14,3 C 10,0 C 6,0 C 95 % 1018,4 hPa 0,0 l/m 0 min 0 min 0,000 mm 0,0 UV-I 0 W/m 46,6 km/h (6 Bft)
29.12.2012 02:28 14,3 C 10,0 C 6,1 C 95 % 1018,4 hPa 0,0 l/m 0 min 0 min 0,000 mm 0,0 UV-I 0 W/m 10,4 km/h (2 Bft)
29.12.2012 02:30 14,3 C 10,0 C 6,1 C 95 % 1018,4 hPa 0,0 l/m 0 min 0 min 0,000 mm 0,0 UV-I 0 W/m 11,2 km/h (2 Bft)
29.12.2012 02:32 14,3 C 10,0 C 6,1 C 95 % 1018,4 hPa 0,0 l/m 0 min 0 min 0,000 mm 0,0 UV-I 0 W/m 10,4 km/h (2 Bft)
29.12.2012 02:34 14,3 C 10,0 C 6,1 C 95 % 1018,4 hPa 0,0 l/m 0 min 0 min 0,000 mm 0,0 UV-I 0 W/m 0,0 km/h (0 Bft)
29.12.2012 02:36 14,3 C 10,0 C 6,0 C 95 % 1018,2 hPa 0,0 l/m 0 min 0 min 0,000 mm 0,0 UV-I 0 W/m 0,0 km/h (0 Bft)
29.12.2012 02:38 14,3 C 10,0 C 6,0 C 95 % 1018,2 hPa 0,0 l/m 0 min 0 min 0,000 mm 0,0 UV-I 0 W/m 13,6 km/h (3 Bft)
29.12.2012 02:40 14,3 C 10,0 C 6,0 C 95 % 1018,2 hPa 0,0 l/m 0 min 0 min 0,000 mm 0,0 UV-I 0 W/m 22,4 km/h (4 Bft)
29.12.2012 02:42 14,3 C 10,0 C 6,1 C 95 % 1018,2 hPa 0,0 l/m 0 min 0 min 0,000 mm 0,0 UV-I 0 W/m 0,0 km/h (0 Bft)
29.12.2012 02:44 14,3 C 10,0 C 6,1 C 95 % 1018,2 hPa 0,0 l/m 0 min 0 min 0,000 mm 0,0 UV-I 0 W/m 37,8 km/h (5 Bft)
29.12.2012 02:46 14,3 C 10,0 C 6,1 C 95 % 1018,2 hPa 0,0 l/m 0 min 0 min 0,000 mm 0,0 UV-I 0 W/m 16,0 km/h (3 Bft)
29.12.2012 02:48 14,3 C 10,0 C 6,1 C 95 % 1018,2 hPa 0,0 l/m 0 min 0 min 0,000 mm 0,0 UV-I 0 W/m 13,6 km/h (3 Bft)
29.12.2012 02:50 14,3 C 10,0 C 6,1 C 95 % 1018,2 hPa 0,0 l/m 0 min 0 min 0,000 mm 0,0 UV-I 0 W/m 13,6 km/h (3 Bft)
29.12.2012 02:52 14,3 C 10,0 C 6,1 C 95 % 1018,2 hPa 0,0 l/m 0 min 0 min 0,000 mm 0,0 UV-I 0 W/m 8,8 km/h (2 Bft)
29.12.2012 02:54 14,3 C 10,0 C 6,1 C 95 % 1018,2 hPa 0,0 l/m 0 min 0 min 0,000 mm 0,0 UV-I 0 W/m 16,0 km/h (3 Bft)
29.12.2012 02:56 14,3 C 10,0 C 6,1 C 95 % 1018,0 hPa 0,0 l/m 0 min 0 min 0,000 mm 0,0 UV-I 0 W/m 20,8 km/h (4 Bft)
29.12.2012 02:58 14,3 C 10,0 C 6,1 C 95 % 1018,0 hPa 0,0 l/m 0 min 0 min 0,000 mm 0,0 UV-I 0 W/m 31,4 km/h (5 Bft)
29.12.2012 03:00 14,5 C 10,0 C 6,1 C 95 % 1018,0 hPa 0,0 l/m 0 min 0 min 0,000 mm 0,0 UV-I 0 W/m 16,8 km/h (3 Bft)
29.12.2012 03:02 14,3 C 10,0 C 6,1 C 95 % 1018,0 hPa 0,0 l/m 0 min 0 min 0,000 mm 0,0 UV-I 0 W/m 10,4 km/h (2 Bft)
29.12.2012 03:06 14,3 C 10,0 C 6,2 C 95 % 1018,0 hPa 0,0 l/m 0 min 0 min 0,000 mm 0,0 UV-I 0 W/m 32,2 km/h (5 Bft)
29.12.2012 03:08 14,5 C 10,0 C 6,2 C 95 % 1018,0 hPa 0,0 l/m 0 min 0 min 0,000 mm 0,0 UV-I 0 W/m 13,6 km/h (3 Bft)
29.12.2012 03:10 14,5 C 10,0 C 6,2 C 95 % 1018,0 hPa 0,0 l/m 0 min 0 min 0,000 mm 0,0 UV-I 0 W/m 22,4 km/h (4 Bft)
29.12.2012 03:12 14,4 C 10,0 C 6,1 C 95 % 1018,0 hPa 0,0 l/m 0 min 0 min 0,000 mm 0,0 UV-I 0 W/m 16,8 km/h (3 Bft)
29.12.2012 03:14 14,5 C 10,0 C 6,2 C 95 % 1018,0 hPa 0,0 l/m 0 min 0 min 0,000 mm 0,0 UV-I 0 W/m 9,6 km/h (2 Bft)
29.12.2012 03:16 14,5 C 10,4 C 6,1 C 94 % 1018,0 hPa 0,0 l/m 0 min 0 min 0,000 mm 0,0 UV-I 0 W/m 0,0 km/h (0 Bft)
29.12.2012 03:18 14,4 C 10,5 C 6,1 C 94 % 1018,0 hPa 0,0 l/m 0 min 0 min 0,000 mm 0,0 UV-I 0 W/m 10,4 km/h (2 Bft)
29.12.2012 03:20 14,4 C 10,4 C 6,1 C 94 % 1018,0 hPa 0,0 l/m 0 min 0 min 0,000 mm 0,0 UV-I 0 W/m 20,0 km/h (4 Bft)
29.12.2012 03:22 14,4 C 10,5 C 6,1 C 94 % 1018,0 hPa 0,0 l/m 0 min 0 min 0,000 mm 0,0 UV-I 0 W/m 23,2 km/h (4 Bft)
29.12.2012 03:24 14,4 C 10,5 C 6,1 C 94 % 1018,0 hPa 0,0 l/m 0 min 0 min 0,000 mm 0,0 UV-I 0 W/m 27,4 km/h (4 Bft)
29.12.2012 03:26 14,4 C 10,5 C 6,2 C 94 % 1018,0 hPa 0,0 l/m 0 min 0 min 0,000 mm 0,0 UV-I 0 W/m 8,0 km/h (2 Bft)
29.12.2012 03:28 14,4 C 10,5 C 6,2 C 94 % 1018,0 hPa 0,0 l/m 0 min 0 min 0,000 mm 0,0 UV-I 0 W/m 20,8 km/h (4 Bft)
29.12.2012 03:30 14,4 C 10,5 C 6,2 C 94 % 1018,0 hPa 0,0 l/m 0 min 0 min 0,000 mm 0,0 UV-I 0 W/m 9,6 km/h (2 Bft)
29.12.2012 03:32 14,4 C 10,5 C 6,2 C 94 % 1018,0 hPa 0,0 l/m 0 min 0 min 0,000 mm 0,0 UV-I 0 W/m 13,6 km/h (3 Bft)
29.12.2012 03:34 14,4 C 10,4 C 6,2 C 94 % 1018,0 hPa 0,0 l/m 0 min 0 min 0,000 mm 0,0 UV-I 0 W/m 8,0 km/h (2 Bft)
29.12.2012 03:36 14,4 C 10,4 C 6,2 C 94 % 1017,4 hPa 0,0 l/m 0 min 0 min 0,000 mm 0,0 UV-I 0 W/m 9,6 km/h (2 Bft)
29.12.2012 03:38 14,4 C 10,5 C 6,3 C 94 % 1017,4 hPa 0,0 l/m 0 min 0 min 0,000 mm 0,0 UV-I 0 W/m 10,4 km/h (2 Bft)
29.12.2012 03:40 14,4 C 10,4 C 6,3 C 94 % 1017,4 hPa 0,0 l/m 0 min 0 min 0,000 mm 0,0 UV-I 0 W/m 12,8 km/h (3 Bft)
29.12.2012 03:42 14,4 C 10,4 C 6,3 C 94 % 1017,4 hPa 0,0 l/m 0 min 0 min 0,000 mm 0,0 UV-I 0 W/m 14,4 km/h (3 Bft)
29.12.2012 03:44 14,4 C 10,4 C 6,3 C 94 % 1017,4 hPa 0,0 l/m 0 min 0 min 0,000 mm 0,0 UV-I 0 W/m 14,4 km/h (3 Bft)
29.12.2012 03:46 14,4 C 10,4 C 6,3 C 94 % 1017,4 hPa 0,0 l/m 0 min 0 min 0,000 mm 0,0 UV-I 0 W/m 14,4 km/h (3 Bft)
29.12.2012 03:48 14,4 C 10,4 C 6,2 C 94 % 1017,4 hPa 0,0 l/m 0 min 0 min 0,000 mm 0,0 UV-I 0 W/m 10,4 km/h (2 Bft)
29.12.2012 03:50 14,4 C 10,5 C 6,2 C 94 % 1017,4 hPa 0,0 l/m 0 min 0 min 0,000 mm 0,0 UV-I 0 W/m 11,2 km/h (2 Bft)
29.12.2012 03:52 14,4 C 10,5 C 6,3 C 93 % 1017,4 hPa 0,0 l/m 0 min 0 min 0,000 mm 0,0 UV-I 0 W/m 0,0 km/h (0 Bft)
29.12.2012 03:54 14,4 C 10,5 C 6,2 C 93 % 1017,4 hPa 0,0 l/m 0 min 0 min 0,000 mm 0,0 UV-I 0 W/m 37,0 km/h (5 Bft)
29.12.2012 03:56 14,4 C 10,5 C 6,2 C 93 % 1017,3 hPa 0,0 l/m 0 min 0 min 0,000 mm 0,0 UV-I 0 W/m 8,0 km/h (2 Bft)
29.12.2012 03:58 14,4 C 10,5 C 6,2 C 93 % 1017,3 hPa 0,0 l/m 0 min 0 min 0,000 mm 0,0 UV-I 0 W/m 17,6 km/h (3 Bft)
29.12.2012 04:00 14,4 C 10,5 C 6,2 C 93 % 1017,3 hPa 0,0 l/m 0 min 0 min 0,000 mm 0,0 UV-I 0 W/m 24,8 km/h (4 Bft)
29.12.2012 04:02 14,4 C 10,5 C 6,2 C 93 % 1017,3 hPa 0,0 l/m 0 min 0 min 0,000 mm 0,0 UV-I 0 W/m 10,4 km/h (2 Bft)
29.12.2012 04:06 14,4 C 10,5 C 6,2 C 93 % 1017,3 hPa 0,0 l/m 0 min 0 min 0,000 mm 0,0 UV-I 0 W/m 12,0 km/h (2 Bft)
29.12.2012 04:08 14,4 C 10,5 C 6,3 C 93 % 1017,3 hPa 0,0 l/m 0 min 0 min 0,000 mm 0,0 UV-I 0 W/m 14,4 km/h (3 Bft)
29.12.2012 04:10 14,6 C 10,5 C 6,3 C 93 % 1017,3 hPa 0,0 l/m 0 min 0 min 0,000 mm 0,0 UV-I 0 W/m 24,0 km/h (4 Bft)
29.12.2012 04:12 14,4 C 10,5 C 6,3 C 93 % 1017,3 hPa 0,0 l/m 0 min 0 min 0,000 mm 0,0 UV-I 0 W/m 20,0 km/h (4 Bft)
29.12.2012 04:14 14,6 C 10,5 C 6,3 C 93 % 1017,3 hPa 0,0 l/m 0 min 0 min 0,000 mm 0,0 UV-I 0 W/m 9,6 km/h (2 Bft)
29.12.2012 04:16 14,6 C 10,5 C 6,3 C 93 % 1017,4 hPa 0,0 l/m 0 min 0 min 0,000 mm 0,0 UV-I 0 W/m 12,0 km/h (2 Bft)
29.12.2012 04:18 14,6 C 10,5 C 6,4 C 93 % 1017,4 hPa 0,0 l/m 0 min 0 min 0,000 mm 0,0 UV-I 0 W/m 12,8 km/h (3 Bft)
29.12.2012 04:20 14,6 C 10,5 C 6,5 C 93 % 1017,4 hPa 0,0 l/m 0 min 0 min 0,000 mm 0,0 UV-I 0 W/m 18,4 km/h (3 Bft)
29.12.2012 04:22 14,6 C 10,5 C 6,5 C 93 % 1017,4 hPa 0,0 l/m 0 min 0 min 0,000 mm 0,0 UV-I 0 W/m 17,6 km/h (3 Bft)
29.12.2012 04:24 14,6 C 10,5 C 6,5 C 93 % 1017,4 hPa 0,0 l/m 0 min 0 min 0,000 mm 0,0 UV-I 0 W/m 16,8 km/h (3 Bft)
29.12.2012 04:26 14,6 C 10,5 C 6,5 C 93 % 1017,4 hPa 0,0 l/m 0 min 0 min 0,000 mm 0,0 UV-I 0 W/m 11,2 km/h (2 Bft)
29.12.2012 04:28 14,6 C 10,5 C 6,5 C 93 % 1017,4 hPa 0,0 l/m 0 min 0 min 0,000 mm 0,0 UV-I 0 W/m 9,6 km/h (2 Bft)
29.12.2012 04:30 14,6 C 10,5 C 6,5 C 93 % 1017,4 hPa 0,0 l/m 0 min 0 min 0,000 mm 0,0 UV-I 0 W/m 24,8 km/h (4 Bft)
29.12.2012 04:32 14,6 C 10,5 C 6,4 C 93 % 1017,4 hPa 0,0 l/m 0 min 0 min 0,000 mm 0,0 UV-I 0 W/m 12,0 km/h (2 Bft)
29.12.2012 04:34 14,6 C 10,5 C 6,5 C 93 % 1017,4 hPa 0,0 l/m 0 min 0 min 0,000 mm 0,0 UV-I 0 W/m 11,2 km/h (2 Bft)
29.12.2012 04:36 14,6 C 10,5 C 6,4 C 93 % 1017,2 hPa 0,0 l/m 0 min 0 min 0,000 mm 0,0 UV-I 0 W/m 11,2 km/h (2 Bft)
29.12.2012 04:38 14,6 C 10,5 C 6,4 C 93 % 1017,2 hPa 0,0 l/m 0 min 0 min 0,000 mm 0,0 UV-I 0 W/m 20,8 km/h (4 Bft)
29.12.2012 04:40 14,6 C 10,5 C 6,5 C 93 % 1017,2 hPa 0,0 l/m 0 min 0 min 0,000 mm 0,0 UV-I 0 W/m 44,2 km/h (6 Bft)
29.12.2012 04:42 14,6 C 10,5 C 6,5 C 93 % 1017,2 hPa 0,0 l/m 0 min 0 min 0,000 mm 0,0 UV-I 0 W/m 12,8 km/h (3 Bft)
29.12.2012 04:44 14,6 C 10,5 C 6,5 C 93 % 1017,2 hPa 0,0 l/m 0 min 0 min 0,000 mm 0,0 UV-I 0 W/m 24,8 km/h (4 Bft)
29.12.2012 04:46 14,6 C 10,5 C 6,5 C 93 % 1017,2 hPa 0,0 l/m 0 min 0 min 0,000 mm 0,0 UV-I 0 W/m 9,6 km/h (2 Bft)
29.12.2012 04:48 14,6 C 10,5 C 6,5 C 93 % 1017,2 hPa 0,0 l/m 0 min 0 min 0,000 mm 0,0 UV-I 0 W/m 32,2 km/h (5 Bft)
29.12.2012 04:50 14,6 C 10,5 C 6,6 C 93 % 1017,2 hPa 0,0 l/m 0 min 0 min 0,000 mm 0,0 UV-I 0 W/m 11,2 km/h (2 Bft)
29.12.2012 04:52 14,6 C 10,5 C 6,5 C 93 % 1017,2 hPa 0,0 l/m 0 min 0 min 0,000 mm 0,0 UV-I 0 W/m 29,0 km/h (5 Bft)
29.12.2012 04:54 14,6 C 10,5 C 6,6 C 93 % 1017,2 hPa 0,0 l/m 0 min 0 min 0,000 mm 0,0 UV-I 0 W/m 16,0 km/h (3 Bft)
29.12.2012 04:56 14,6 C 10,5 C 6,6 C 93 % 1017,1 hPa 0,0 l/m 0 min 0 min 0,000 mm 0,0 UV-I 0 W/m 12,8 km/h (3 Bft)
29.12.2012 04:58 14,6 C 10,5 C 6,6 C 93 % 1017,1 hPa 0,0 l/m 0 min 0 min 0,000 mm 0,0 UV-I 0 W/m 22,4 km/h (4 Bft)
29.12.2012 05:00 14,6 C 10,5 C 6,6 C 93 % 1017,1 hPa 0,0 l/m 0 min 0 min 0,000 mm 0,0 UV-I 0 W/m 22,4 km/h (4 Bft)
29.12.2012 05:02 14,6 C 10,5 C 6,6 C 93 % 1017,1 hPa 0,0 l/m 0 min 0 min 0,000 mm 0,0 UV-I 0 W/m 13,6 km/h (3 Bft)
29.12.2012 05:06 14,6 C 10,5 C 6,6 C 93 % 1017,1 hPa 0,0 l/m 0 min 0 min 0,000 mm 0,0 UV-I 0 W/m 10,4 km/h (2 Bft)
29.12.2012 05:08 14,6 C 10,5 C 6,6 C 93 % 1017,1 hPa 0,0 l/m 0 min 0 min 0,000 mm 0,0 UV-I 0 W/m 0,0 km/h (0 Bft)
29.12.2012 05:10 14,6 C 10,5 C 6,6 C 93 % 1017,1 hPa 0,0 l/m 0 min 0 min 0,000 mm 0,0 UV-I 0 W/m 0,0 km/h (0 Bft)
29.12.2012 05:12 14,6 C 10,5 C 6,7 C 93 % 1017,1 hPa 0,0 l/m 0 min 0 min 0,000 mm 0,0 UV-I 0 W/m 8,8 km/h (2 Bft)
29.12.2012 05:14 14,6 C 10,5 C 6,6 C 93 % 1017,1 hPa 0,0 l/m 0 min 0 min 0,000 mm 0,0 UV-I 0 W/m 12,0 km/h (2 Bft)
29.12.2012 05:16 14,6 C 10,5 C 6,6 C 93 % 1016,9 hPa 0,0 l/m 0 min 0 min 0,000 mm 0,0 UV-I 0 W/m 12,8 km/h (3 Bft)
29.12.2012 05:18 14,6 C 10,5 C 6,6 C 93 % 1016,9 hPa 0,0 l/m 0 min 0 min 0,000 mm 0,0 UV-I 0 W/m 12,0 km/h (2 Bft)
29.12.2012 05:20 14,6 C 10,5 C 6,6 C 93 % 1016,9 hPa 0,0 l/m 0 min 0 min 0,000 mm 0,0 UV-I 0 W/m 12,0 km/h (2 Bft)
29.12.2012 05:22 14,6 C 10,5 C 6,6 C 93 % 1016,9 hPa 0,0 l/m 0 min 0 min 0,000 mm 0,0 UV-I 0 W/m 0,0 km/h (0 Bft)
29.12.2012 05:24 14,6 C 10,5 C 6,5 C 93 % 1016,9 hPa 0,0 l/m 0 min 0 min 0,000 mm 0,0 UV-I 0 W/m 11,2 km/h (2 Bft)
29.12.2012 05:26 14,6 C 10,5 C 6,5 C 93 % 1016,9 hPa 0,0 l/m 0 min 0 min 0,000 mm 0,0 UV-I 0 W/m 17,6 km/h (3 Bft)
29.12.2012 05:28 14,6 C 10,5 C 6,5 C 93 % 1016,9 hPa 0,0 l/m 0 min 0 min 0,000 mm 0,0 UV-I 0 W/m 11,2 km/h (2 Bft)
29.12.2012 05:30 14,6 C 10,5 C 6,5 C 93 % 1016,9 hPa 0,0 l/m 0 min 0 min 0,000 mm 0,0 UV-I 0 W/m 12,0 km/h (2 Bft)
29.12.2012 05:32 14,7 C 10,5 C 6,5 C 93 % 1016,9 hPa 0,0 l/m 0 min 0 min 0,000 mm 0,0 UV-I 0 W/m 24,0 km/h (4 Bft)
29.12.2012 05:34 14,7 C 10,5 C 6,5 C 93 % 1016,9 hPa 0,0 l/m 0 min 0 min 0,000 mm 0,0 UV-I 0 W/m 0,0 km/h (0 Bft)
29.12.2012 05:36 14,6 C 10,5 C 6,5 C 93 % 1016,9 hPa 0,0 l/m 0 min 0 min 0,000 mm 0,0 UV-I 0 W/m 29,8 km/h (5 Bft)
29.12.2012 05:38 14,7 C 10,5 C 6,5 C 93 % 1016,9 hPa 0,0 l/m 0 min 0 min 0,000 mm 0,0 UV-I 0 W/m 10,4 km/h (2 Bft)
29.12.2012 05:40 14,6 C 10,5 C 6,5 C 93 % 1016,9 hPa 0,0 l/m 0 min 0 min 0,000 mm 0,0 UV-I 0 W/m 12,8 km/h (3 Bft)
29.12.2012 05:42 14,7 C 10,5 C 6,5 C 93 % 1016,9 hPa 0,0 l/m 0 min 0 min 0,000 mm 0,0 UV-I 0 W/m 12,0 km/h (2 Bft)
29.12.2012 05:44 14,7 C 10,5 C 6,5 C 93 % 1016,9 hPa 0,0 l/m 0 min 0 min 0,000 mm 0,0 UV-I 0 W/m 11,2 km/h (2 Bft)
29.12.2012 05:46 14,7 C 10,5 C 6,5 C 93 % 1016,9 hPa 0,0 l/m 0 min 0 min 0,000 mm 0,0 UV-I 0 W/m 18,4 km/h (3 Bft)
29.12.2012 05:48 14,7 C 10,5 C 6,5 C 93 % 1016,9 hPa 0,0 l/m 0 min 0 min 0,000 mm 0,0 UV-I 0 W/m 16,8 km/h (3 Bft)
29.12.2012 05:50 14,7 C 10,5 C 6,5 C 93 % 1016,9 hPa 0,0 l/m 0 min 0 min 0,000 mm 0,0 UV-I 0 W/m 22,4 km/h (4 Bft)
29.12.2012 05:52 14,7 C 10,5 C 6,4 C 93 % 1016,9 hPa 0,0 l/m 0 min 0 min 0,000 mm 0,0 UV-I 0 W/m 9,6 km/h (2 Bft)
29.12.2012 05:54 14,7 C 10,5 C 6,4 C 93 % 1016,9 hPa 0,0 l/m 0 min 0 min 0,000 mm 0,0 UV-I 0 W/m 9,6 km/h (2 Bft)
29.12.2012 05:56 14,7 C 10,5 C 6,5 C 93 % 1016,8 hPa 0,0 l/m 0 min 0 min 0,000 mm 0,0 UV-I 0 W/m 24,8 km/h (4 Bft)
29.12.2012 05:58 14,7 C 10,5 C 6,5 C 93 % 1016,8 hPa 0,0 l/m 0 min 0 min 0,000 mm 0,0 UV-I 0 W/m 24,8 km/h (4 Bft)
29.12.2012 06:00 14,7 C 10,5 C 6,5 C 93 % 1016,8 hPa 0,0 l/m 0 min 0 min 0,000 mm 0,0 UV-I 0 W/m 12,0 km/h (2 Bft)
29.12.2012 06:02 14,7 C 10,5 C 6,5 C 93 % 1016,8 hPa 0,0 l/m 0 min 0 min 0,000 mm 0,0 UV-I 0 W/m 15,2 km/h (3 Bft)
29.12.2012 06:06 14,7 C 10,5 C 6,4 C 93 % 1016,8 hPa 0,0 l/m 0 min 0 min 0,000 mm 0,0 UV-I 0 W/m 9,6 km/h (2 Bft)
29.12.2012 06:08 14,7 C 10,5 C 6,5 C 93 % 1016,8 hPa 0,0 l/m 0 min 0 min 0,000 mm 0,0 UV-I 0 W/m 12,8 km/h (3 Bft)
29.12.2012 06:10 14,7 C 10,5 C 6,5 C 93 % 1016,8 hPa 0,0 l/m 0 min 0 min 0,000 mm 0,0 UV-I 0 W/m 18,4 km/h (3 Bft)
29.12.2012 06:12 14,7 C 10,5 C 6,5 C 93 % 1016,8 hPa 0,0 l/m 0 min 0 min 0,000 mm 0,0 UV-I 0 W/m 8,0 km/h (2 Bft)
29.12.2012 06:14 14,7 C 10,5 C 6,5 C 93 % 1016,8 hPa 0,0 l/m 0 min 0 min 0,000 mm 0,0 UV-I 0 W/m 10,4 km/h (2 Bft)
29.12.2012 06:16 14,6 C 10,5 C 6,5 C 93 % 1016,6 hPa 0,0 l/m 0 min 0 min 0,000 mm 0,0 UV-I 0 W/m 20,0 km/h (4 Bft)
29.12.2012 06:18 14,7 C 10,5 C 6,5 C 93 % 1016,6 hPa 0,0 l/m 0 min 0 min 0,000 mm 0,0 UV-I 0 W/m 0,0 km/h (0 Bft)
29.12.2012 06:20 14,7 C 10,5 C 6,5 C 93 % 1016,6 hPa 0,0 l/m 0 min 0 min 0,000 mm 0,0 UV-I 0 W/m 20,8 km/h (4 Bft)
29.12.2012 06:22 14,7 C 10,5 C 6,5 C 93 % 1016,6 hPa 0,0 l/m 0 min 0 min 0,000 mm 0,0 UV-I 0 W/m 0,0 km/h (0 Bft)
29.12.2012 06:24 14,6 C 10,5 C 6,5 C 93 % 1016,6 hPa 0,0 l/m 0 min 0 min 0,000 mm 0,0 UV-I 0 W/m 16,0 km/h (3 Bft)
29.12.2012 06:26 14,7 C 10,5 C 6,4 C 93 % 1016,6 hPa 0,0 l/m 0 min 0 min 0,000 mm 0,0 UV-I 0 W/m 8,0 km/h (2 Bft)
29.12.2012 06:28 14,7 C 10,5 C 6,5 C 93 % 1016,6 hPa 0,0 l/m 0 min 0 min 0,000 mm 0,0 UV-I 0 W/m 8,8 km/h (2 Bft)
29.12.2012 06:30 14,7 C 10,5 C 6,5 C 93 % 1016,6 hPa 0,0 l/m 0 min 0 min 0,000 mm 0,0 UV-I 0 W/m 11,2 km/h (2 Bft)
29.12.2012 06:32 14,6 C 10,5 C 6,5 C 93 % 1016,6 hPa 0,0 l/m 0 min 0 min 0,000 mm 0,0 UV-I 0 W/m 19,2 km/h (3 Bft)
29.12.2012 06:34 14,6 C 10,5 C 6,5 C 93 % 1016,6 hPa 0,0 l/m 0 min 0 min 0,000 mm 0,0 UV-I 0 W/m 11,2 km/h (2 Bft)
29.12.2012 06:36 14,6 C 10,5 C 6,4 C 93 % 1016,3 hPa 0,0 l/m 0 min 0 min 0,000 mm 0,0 UV-I 0 W/m 16,8 km/h (3 Bft)
29.12.2012 06:38 14,6 C 10,5 C 6,5 C 93 % 1016,3 hPa 0,0 l/m 0 min 0 min 0,000 mm 0,0 UV-I 0 W/m 13,6 km/h (3 Bft)
29.12.2012 06:40 14,6 C 10,5 C 6,4 C 93 % 1016,3 hPa 0,0 l/m 0 min 0 min 0,000 mm 0,0 UV-I 0 W/m 12,8 km/h (3 Bft)
29.12.2012 06:42 14,6 C 10,5 C 6,5 C 93 % 1016,3 hPa 0,0 l/m 0 min 0 min 0,000 mm 0,0 UV-I 0 W/m 11,2 km/h (2 Bft)
29.12.2012 06:44 14,6 C 10,5 C 6,4 C 93 % 1016,3 hPa 0,0 l/m 0 min 0 min 0,000 mm 0,0 UV-I 0 W/m 8,0 km/h (2 Bft)
29.12.2012 06:46 14,8 C 10,5 C 6,5 C 93 % 1016,3 hPa 0,0 l/m 0 min 0 min 0,000 mm 0,0 UV-I 0 W/m 0,0 km/h (0 Bft)
29.12.2012 06:48 14,6 C 10,5 C 6,4 C 93 % 1016,3 hPa 0,0 l/m 0 min 0 min 0,000 mm 0,0 UV-I 0 W/m 16,8 km/h (3 Bft)
29.12.2012 06:50 14,6 C 10,5 C 6,5 C 93 % 1016,3 hPa 0,0 l/m 0 min 0 min 0,000 mm 0,0 UV-I 0 W/m 11,2 km/h (2 Bft)
29.12.2012 06:52 14,6 C 10,5 C 6,5 C 93 % 1016,3 hPa 0,0 l/m 0 min 0 min 0,000 mm 0,0 UV-I 0 W/m 0,0 km/h (0 Bft)
29.12.2012 06:54 14,6 C 10,5 C 6,5 C 93 % 1016,3 hPa 0,0 l/m 0 min 0 min 0,000 mm 0,0 UV-I 0 W/m 12,0 km/h (2 Bft)
29.12.2012 06:56 14,6 C 10,5 C 6,5 C 93 % 1016,1 hPa 0,0 l/m 0 min 0 min 0,000 mm 0,0 UV-I 0 W/m 17,6 km/h (3 Bft)
29.12.2012 06:58 14,6 C 10,5 C 6,4 C 93 % 1016,1 hPa 0,0 l/m 0 min 0 min 0,000 mm 0,0 UV-I 0 W/m 20,0 km/h (4 Bft)
29.12.2012 07:00 14,6 C 10,5 C 6,4 C 93 % 1016,1 hPa 0,0 l/m 0 min 0 min 0,000 mm 0,0 UV-I 0 W/m 16,8 km/h (3 Bft)
29.12.2012 07:02 14,6 C 10,7 C 6,4 C 93 % 1016,1 hPa 0,0 l/m 0 min 0 min 0,000 mm 0,0 UV-I 0 W/m 11,2 km/h (2 Bft)
29.12.2012 07:04 14,8 C 10,7 C 6,4 C 93 % 1016,1 hPa 0,0 l/m 0 min 0 min 0,000 mm 0,0 UV-I 0 W/m 0,0 km/h (0 Bft)
29.12.2012 07:06 14,8 C 10,7 C 6,4 C 93 % 1016,1 hPa 0,0 l/m 0 min 0 min 0,000 mm 0,0 UV-I 0 W/m 9,6 km/h (2 Bft)
29.12.2012 07:08 14,8 C 10,7 C 6,5 C 93 % 1016,1 hPa 0,0 l/m 0 min 0 min 0,000 mm 0,0 UV-I 0 W/m 29,0 km/h (5 Bft)
29.12.2012 07:10 14,8 C 10,7 C 6,5 C 93 % 1016,1 hPa 0,0 l/m 0 min 0 min 0,000 mm 0,0 UV-I 0 W/m 11,2 km/h (2 Bft)
29.12.2012 07:12 14,8 C 10,7 C 6,5 C 93 % 1016,1 hPa 0,0 l/m 0 min 0 min 0,000 mm 0,0 UV-I 0 W/m 11,2 km/h (2 Bft)
29.12.2012 07:14 14,6 C 10,7 C 6,5 C 93 % 1016,1 hPa 0,0 l/m 0 min 0 min 0,000 mm 0,0 UV-I 0 W/m 20,8 km/h (4 Bft)
29.12.2012 07:16 14,8 C 10,7 C 6,5 C 93 % 1015,8 hPa 0,0 l/m 0 min 0 min 0,000 mm 0,0 UV-I 0 W/m 24,0 km/h (4 Bft)
29.12.2012 07:18 14,8 C 10,7 C 6,4 C 93 % 1015,8 hPa 0,0 l/m 0 min 0 min 0,000 mm 0,0 UV-I 0 W/m 12,0 km/h (2 Bft)
29.12.2012 07:20 14,8 C 10,7 C 6,5 C 93 % 1015,8 hPa 0,0 l/m 0 min 0 min 0,000 mm 0,0 UV-I 0 W/m 18,4 km/h (3 Bft)
29.12.2012 07:22 14,8 C 10,7 C 6,5 C 93 % 1015,8 hPa 0,0 l/m 0 min 0 min 0,000 mm 0,0 UV-I 0 W/m 16,8 km/h (3 Bft)
29.12.2012 07:24 14,8 C 10,7 C 6,5 C 93 % 1015,8 hPa 0,0 l/m 0 min 0 min 0,000 mm 0,0 UV-I 0 W/m 0,0 km/h (0 Bft)
29.12.2012 07:26 14,8 C 10,7 C 6,5 C 93 % 1015,8 hPa 0,0 l/m 0 min 0 min 0,000 mm 0,0 UV-I 0 W/m 0,0 km/h (0 Bft)
29.12.2012 07:28 14,8 C 10,7 C 6,4 C 93 % 1015,8 hPa 0,0 l/m 0 min 0 min 0,000 mm 0,0 UV-I 0 W/m 16,8 km/h (3 Bft)
29.12.2012 07:30 14,8 C 10,7 C 6,3 C 93 % 1015,8 hPa 0,0 l/m 0 min 0 min 0,000 mm 0,0 UV-I 0 W/m 11,2 km/h (2 Bft)
29.12.2012 07:32 14,8 C 10,7 C 6,3 C 93 % 1015,8 hPa 0,0 l/m 0 min 0 min 0,000 mm 0,0 UV-I 0 W/m 12,8 km/h (3 Bft)
29.12.2012 07:34 14,8 C 10,7 C 6,3 C 93 % 1015,8 hPa 0,0 l/m 0 min 0 min 0,000 mm 0,0 UV-I 0 W/m 11,2 km/h (2 Bft)
29.12.2012 07:36 14,8 C 10,7 C 6,2 C 93 % 1016,1 hPa 0,0 l/m 0 min 0 min 0,000 mm 0,0 UV-I 0 W/m 9,6 km/h (2 Bft)
29.12.2012 07:38 14,8 C 10,7 C 6,1 C 93 % 1016,1 hPa 0,0 l/m 0 min 0 min 0,000 mm 0,0 UV-I 0 W/m 14,4 km/h (3 Bft)
29.12.2012 07:40 14,8 C 10,7 C 6,1 C 93 % 1016,1 hPa 0,0 l/m 0 min 0 min 0,000 mm 0,0 UV-I 0 W/m 22,4 km/h (4 Bft)
29.12.2012 07:42 14,8 C 10,7 C 5,8 C 93 % 1016,1 hPa 0,0 l/m 0 min 0 min 0,000 mm 0,0 UV-I 0 W/m 0,0 km/h (0 Bft)
29.12.2012 07:44 14,8 C 10,7 C 5,8 C 93 % 1016,1 hPa 0,0 l/m 0 min 0 min 0,000 mm 0,0 UV-I 0 W/m 10,4 km/h (2 Bft)
29.12.2012 07:46 14,8 C 10,7 C 5,7 C 93 % 1016,1 hPa 0,0 l/m 0 min 0 min 0,000 mm 0,0 UV-I 0 W/m 9,6 km/h (2 Bft)
29.12.2012 07:48 14,8 C 10,7 C 5,7 C 93 % 1016,1 hPa 0,0 l/m 0 min 0 min 0,000 mm 0,0 UV-I 0 W/m 0,0 km/h (0 Bft)
29.12.2012 07:50 14,8 C 10,7 C 5,7 C 93 % 1016,1 hPa 0,0 l/m 0 min 0 min 0,000 mm 0,0 UV-I 0 W/m 13,6 km/h (3 Bft)
29.12.2012 07:52 14,8 C 10,7 C 5,7 C 93 % 1016,1 hPa 0,0 l/m 0 min 0 min 0,000 mm 0,0 UV-I 0 W/m 9,6 km/h (2 Bft)
29.12.2012 07:54 14,8 C 10,7 C 5,7 C 93 % 1016,1 hPa 0,0 l/m 0 min 0 min 0,000 mm 0,0 UV-I 0 W/m 14,4 km/h (3 Bft)
29.12.2012 07:56 14,8 C 10,7 C 5,7 C 93 % 1015,8 hPa 0,0 l/m 0 min 0 min 0,000 mm 0,0 UV-I 0 W/m 13,6 km/h (3 Bft)
29.12.2012 07:58 14,8 C 10,7 C 5,8 C 93 % 1015,8 hPa 0,0 l/m 0 min 0 min 0,000 mm 0,0 UV-I 0 W/m 0,0 km/h (0 Bft)
29.12.2012 08:00 14,8 C 10,7 C 5,8 C 93 % 1015,8 hPa 0,0 l/m 0 min 0 min 0,000 mm 0,0 UV-I 0 W/m 15,2 km/h (3 Bft)
29.12.2012 08:02 14,8 C 10,7 C 5,9 C 93 % 1015,8 hPa 0,0 l/m 0 min 0 min 0,000 mm 0,0 UV-I 0 W/m 14,4 km/h (3 Bft)
29.12.2012 08:06 14,8 C 10,7 C 5,8 C 93 % 1015,8 hPa 0,0 l/m 0 min 0 min 0,000 mm 0,0 UV-I 0 W/m 18,4 km/h (3 Bft)
29.12.2012 08:08 14,8 C 10,7 C 5,8 C 93 % 1015,8 hPa 0,0 l/m 0 min 0 min 0,000 mm 0,0 UV-I 0 W/m 12,0 km/h (2 Bft)
29.12.2012 08:10 14,8 C 10,7 C 5,8 C 93 % 1015,8 hPa 0,0 l/m 0 min 0 min 0,000 mm 0,0 UV-I 0 W/m 17,6 km/h (3 Bft)
29.12.2012 08:12 14,8 C 10,7 C 5,9 C 93 % 1015,8 hPa 0,0 l/m 0 min 0 min 0,000 mm 0,0 UV-I 0 W/m 16,0 km/h (3 Bft)
29.12.2012 08:14 14,8 C 10,7 C 5,9 C 93 % 1015,8 hPa 0,0 l/m 0 min 0 min 0,000 mm 0,0 UV-I 0 W/m 9,6 km/h (2 Bft)
29.12.2012 08:16 14,8 C 10,7 C 5,9 C 93 % 1015,6 hPa 0,0 l/m 0 min 0 min 0,000 mm 0,0 UV-I 0 W/m 16,0 km/h (3 Bft)
29.12.2012 08:18 14,8 C 10,7 C 5,9 C 93 % 1015,6 hPa 0,0 l/m 0 min 0 min 0,000 mm 0,0 UV-I 0 W/m 21,6 km/h (4 Bft)
29.12.2012 08:20 14,8 C 10,7 C 6,1 C 93 % 1015,6 hPa 0,0 l/m 0 min 0 min 0,000 mm 0,0 UV-I 0 W/m 12,0 km/h (2 Bft)
29.12.2012 08:22 14,8 C 10,7 C 6,1 C 93 % 1015,6 hPa 0,0 l/m 0 min 0 min 0,000 mm 0,0 UV-I 0 W/m 8,8 km/h (2 Bft)
29.12.2012 08:24 14,8 C 10,7 C 6,1 C 93 % 1015,6 hPa 0,0 l/m 0 min 0 min 0,000 mm 0,0 UV-I 0 W/m 16,0 km/h (3 Bft)
29.12.2012 08:26 14,8 C 10,7 C 6,1 C 93 % 1015,6 hPa 0,0 l/m 0 min 0 min 0,000 mm 0,0 UV-I 0 W/m 8,8 km/h (2 Bft)
29.12.2012 08:28 14,8 C 10,7 C 6,0 C 93 % 1015,6 hPa 0,0 l/m 0 min 0 min 0,000 mm 0,0 UV-I 0 W/m 14,4 km/h (3 Bft)
29.12.2012 08:30 14,8 C 10,7 C 6,0 C 93 % 1015,6 hPa 0,0 l/m 0 min 0 min 0,000 mm 0,0 UV-I 0 W/m 12,8 km/h (3 Bft)
29.12.2012 08:32 14,8 C 10,7 C 6,0 C 93 % 1015,6 hPa 0,0 l/m 0 min 0 min 0,000 mm 0,0 UV-I 0 W/m 12,0 km/h (2 Bft)
29.12.2012 08:34 14,8 C 10,7 C 6,0 C 93 % 1015,6 hPa 0,0 l/m 0 min 0 min 0,000 mm 0,0 UV-I 0 W/m 11,2 km/h (2 Bft)
29.12.2012 08:36 14,8 C 10,7 C 5,9 C 93 % 1015,6 hPa 0,0 l/m 0 min 0 min 0,000 mm 0,0 UV-I 0 W/m 19,2 km/h (3 Bft)
29.12.2012 08:38 14,8 C 10,7 C 5,9 C 93 % 1015,6 hPa 0,0 l/m 0 min 0 min 0,000 mm 0,0 UV-I 0 W/m 14,4 km/h (3 Bft)
29.12.2012 08:40 14,8 C 10,7 C 6,0 C 93 % 1015,6 hPa 0,0 l/m 0 min 0 min 0,000 mm 0,0 UV-I 0 W/m 12,8 km/h (3 Bft)
29.12.2012 08:42 14,8 C 10,7 C 6,0 C 93 % 1015,6 hPa 0,0 l/m 0 min 0 min 0,000 mm 0,0 UV-I 0 W/m 12,0 km/h (2 Bft)
29.12.2012 08:44 14,8 C 10,7 C 6,0 C 93 % 1015,6 hPa 0,0 l/m 0 min 0 min 0,000 mm 0,0 UV-I 0 W/m 9,6 km/h (2 Bft)
29.12.2012 08:46 14,8 C 10,7 C 6,0 C 93 % 1015,6 hPa 0,0 l/m 0 min 0 min 0,000 mm 0,0 UV-I 0 W/m 12,8 km/h (3 Bft)
29.12.2012 08:48 14,8 C 10,7 C 6,0 C 93 % 1015,6 hPa 0,0 l/m 0 min 0 min 0,000 mm 0,0 UV-I 0 W/m 20,8 km/h (4 Bft)
29.12.2012 08:50 14,8 C 10,7 C 5,9 C 93 % 1015,6 hPa 0,0 l/m 0 min 0 min 0,000 mm 0,0 UV-I 0 W/m 12,8 km/h (3 Bft)
29.12.2012 08:52 14,8 C 10,7 C 6,0 C 93 % 1015,6 hPa 0,0 l/m 0 min 0 min 0,000 mm 0,0 UV-I 0 W/m 11,2 km/h (2 Bft)
29.12.2012 08:54 14,8 C 10,0 C 6,0 C 92 % 1015,6 hPa 0,0 l/m 0 min 0 min 0,000 mm 0,0 UV-I 0 W/m 24,0 km/h (4 Bft)
29.12.2012 08:56 14,8 C 10,1 C 6,0 C 92 % 1015,6 hPa 0,0 l/m 0 min 0 min 0,000 mm 0,0 UV-I 0 W/m 19,2 km/h (3 Bft)
29.12.2012 08:58 14,8 C 10,0 C 6,0 C 92 % 1015,6 hPa 0,0 l/m 0 min 0 min 0,000 mm 0,0 UV-I 0 W/m 8,0 km/h (2 Bft)
29.12.2012 09:00 14,8 C 10,1 C 5,9 C 92 % 1015,6 hPa 0,0 l/m 0 min 0 min 0,000 mm 0,0 UV-I 0 W/m 27,4 km/h (4 Bft)
29.12.2012 09:02 14,8 C 10,1 C 6,0 C 92 % 1015,6 hPa 0,0 l/m 0 min 0 min 0,000 mm 0,0 UV-I 0 W/m 30,6 km/h (5 Bft)
29.12.2012 09:06 14,8 C 10,1 C 6,0 C 93 % 1015,6 hPa 0,1 l/m 0 min 0 min 0,000 mm 0,0 UV-I 0 W/m 15,2 km/h (3 Bft)
29.12.2012 09:08 14,8 C 10,1 C 6,1 C 93 % 1015,6 hPa 0,0 l/m 0 min 0 min 0,000 mm 0,0 UV-I 0 W/m 0,0 km/h (0 Bft)
29.12.2012 09:10 14,8 C 10,0 C 6,1 C 93 % 1015,6 hPa 0,0 l/m 0 min 0 min 0,000 mm 0,0 UV-I 0 W/m 0,0 km/h (0 Bft)
29.12.2012 09:12 14,8 C 10,1 C 6,0 C 93 % 1015,6 hPa 0,0 l/m 0 min 0 min 0,000 mm 0,0 UV-I 0 W/m 0,0 km/h (0 Bft)
29.12.2012 09:14 14,8 C 10,0 C 6,0 C 93 % 1015,6 hPa 0,0 l/m 0 min 0 min 0,000 mm 0,0 UV-I 0 W/m 0,0 km/h (0 Bft)
29.12.2012 09:16 14,8 C 10,1 C 6,1 C 93 % 1015,3 hPa 0,0 l/m 0 min 0 min 0,000 mm 0,0 UV-I 0 W/m 0,0 km/h (0 Bft)
29.12.2012 09:18 14,8 C 10,1 C 6,1 C 93 % 1015,3 hPa 0,0 l/m 0 min 0 min 0,000 mm 0,0 UV-I 0 W/m 0,0 km/h (0 Bft)
29.12.2012 09:20 14,8 C 10,0 C 6,2 C 92 % 1015,3 hPa 0,0 l/m 0 min 0 min 0,000 mm 0,0 UV-I 0 W/m 0,0 km/h (0 Bft)
29.12.2012 09:22 14,8 C 10,1 C 6,1 C 92 % 1015,3 hPa 0,0 l/m 0 min 0 min 0,000 mm 0,0 UV-I 0 W/m 0,0 km/h (0 Bft)
29.12.2012 09:24 14,8 C 10,0 C 6,2 C 92 % 1015,3 hPa 0,0 l/m 0 min 0 min 0,000 mm 0,0 UV-I 0 W/m 0,0 km/h (0 Bft)
29.12.2012 09:26 14,8 C 10,0 C 6,3 C 92 % 1015,3 hPa 0,0 l/m 0 min 0 min 0,000 mm 0,0 UV-I 0 W/m 0,0 km/h (0 Bft)
29.12.2012 09:28 14,8 C 10,1 C 6,3 C 92 % 1015,3 hPa 0,0 l/m 0 min 0 min 0,000 mm 0,0 UV-I 0 W/m 0,0 km/h (0 Bft)
29.12.2012 09:30 14,8 C 10,1 C 6,2 C 92 % 1015,3 hPa 0,0 l/m 0 min 0 min 0,000 mm 0,0 UV-I 0 W/m 0,0 km/h (0 Bft)
29.12.2012 09:32 14,9 C 10,1 C 6,2 C 92 % 1015,3 hPa 0,0 l/m 0 min 0 min 0,000 mm 0,0 UV-I 0 W/m 0,0 km/h (0 Bft)
29.12.2012 09:34 14,9 C 10,1 C 6,2 C 92 % 1015,3 hPa 0,0 l/m 0 min 0 min 0,000 mm 0,0 UV-I 0 W/m 0,0 km/h (0 Bft)
29.12.2012 09:36 14,9 C 10,3 C 6,2 C 92 % 1015,2 hPa 0,0 l/m 0 min 0 min 0,000 mm 0,0 UV-I 0 W/m 0,0 km/h (0 Bft)
29.12.2012 09:38 14,9 C 10,3 C 6,2 C 92 % 1015,2 hPa 0,0 l/m 0 min 0 min 0,000 mm 0,0 UV-I 0 W/m 0,0 km/h (0 Bft)
29.12.2012 09:40 14,9 C 10,3 C 6,2 C 92 % 1015,2 hPa 0,0 l/m 0 min 0 min 0,000 mm 0,0 UV-I 0 W/m 0,0 km/h (0 Bft)
29.12.2012 09:42 14,9 C 10,3 C 6,2 C 92 % 1015,2 hPa 0,0 l/m 0 min 0 min 0,000 mm 0,0 UV-I 0 W/m 0,0 km/h (0 Bft)
29.12.2012 09:44 14,8 C 10,3 C 6,2 C 92 % 1015,2 hPa 0,0 l/m 0 min 0 min 0,000 mm 0,0 UV-I 0 W/m 0,0 km/h (0 Bft)
29.12.2012 09:46 14,9 C 10,2 C 6,3 C 92 % 1015,2 hPa 0,0 l/m 0 min 0 min 0,000 mm 0,0 UV-I 0 W/m 0,0 km/h (0 Bft)
29.12.2012 09:48 14,8 C 10,2 C 6,3 C 92 % 1015,2 hPa 0,0 l/m 0 min 0 min 0,000 mm 0,0 UV-I 0 W/m 0,0 km/h (0 Bft)
29.12.2012 09:50 14,8 C 10,3 C 6,3 C 92 % 1015,2 hPa 0,0 l/m 0 min 0 min 0,000 mm 0,0 UV-I 0 W/m 0,0 km/h (0 Bft)
29.12.2012 09:52 14,8 C 10,3 C 6,3 C 92 % 1015,2 hPa 0,0 l/m 0 min 0 min 0,000 mm 0,0 UV-I 0 W/m 0,0 km/h (0 Bft)
29.12.2012 09:54 14,8 C 10,3 C 6,3 C 92 % 1015,2 hPa 0,0 l/m 0 min 0 min 0,000 mm 0,0 UV-I 0 W/m 0,0 km/h (0 Bft)
29.12.2012 09:56 14,8 C 10,3 C 6,3 C 92 % 1015,0 hPa 0,0 l/m 0 min 0 min 0,000 mm 0,0 UV-I 0 W/m 0,0 km/h (0 Bft)
29.12.2012 09:58 14,8 C 10,4 C 6,3 C 92 % 1015,0 hPa 0,0 l/m 0 min 0 min 0,000 mm 0,0 UV-I 0 W/m 0,0 km/h (0 Bft)
29.12.2012 10:00 14,8 C 10,4 C 6,5 C 92 % 1015,0 hPa 0,0 l/m 0 min 0 min 0,000 mm 0,0 UV-I 0 W/m 0,0 km/h (0 Bft)
29.12.2012 10:02 14,8 C 10,5 C 6,5 C 93 % 1015,0 hPa 0,0 l/m 0 min 0 min 0,000 mm 0,0 UV-I 0 W/m 0,0 km/h (0 Bft)
29.12.2012 10:06 14,8 C 10,6 C 6,3 C 92 % 1015,0 hPa 0,0 l/m 0 min 0 min 0,000 mm 0,0 UV-I 0 W/m 0,0 km/h (0 Bft)
29.12.2012 10:08 14,8 C 10,7 C 6,3 C 92 % 1015,0 hPa 0,0 l/m 0 min 0 min 0,000 mm 0,0 UV-I 0 W/m 0,0 km/h (0 Bft)
29.12.2012 10:10 14,8 C 10,7 C 6,3 C 91 % 1015,0 hPa 0,0 l/m 0 min 0 min 0,000 mm 0,0 UV-I 0 W/m 0,0 km/h (0 Bft)
29.12.2012 10:12 14,8 C 10,5 C 6,3 C 91 % 1015,0 hPa 0,0 l/m 0 min 0 min 0,000 mm 0,0 UV-I 0 W/m 0,0 km/h (0 Bft)
29.12.2012 10:14 14,8 C 10,5 C 6,2 C 91 % 1015,0 hPa 0,0 l/m 0 min 0 min 0,000 mm 0,0 UV-I 0 W/m 0,0 km/h (0 Bft)
29.12.2012 10:16 14,8 C 10,5 C 6,3 C 91 % 1014,5 hPa 0,0 l/m 0 min 0 min 0,000 mm 0,0 UV-I 0 W/m 0,0 km/h (0 Bft)
29.12.2012 10:18 15,0 C 10,5 C 6,3 C 91 % 1014,5 hPa 0,0 l/m 0 min 0 min 0,000 mm 0,0 UV-I 0 W/m 0,0 km/h (0 Bft)
29.12.2012 10:20 15,0 C 10,7 C 6,2 C 91 % 1014,5 hPa 0,0 l/m 0 min 0 min 0,000 mm 0,0 UV-I 0 W/m 0,0 km/h (0 Bft)
29.12.2012 10:22 15,0 C 10,6 C 6,3 C 91 % 1014,5 hPa 0,0 l/m 0 min 0 min 0,000 mm 0,0 UV-I 0 W/m 0,0 km/h (0 Bft)
29.12.2012 10:24 15,0 C 10,7 C 6,2 C 91 % 1014,5 hPa 0,0 l/m 0 min 0 min 0,000 mm 0,0 UV-I 0 W/m 0,0 km/h (0 Bft)
29.12.2012 10:26 15,0 C 10,6 C 6,3 C 91 % 1014,5 hPa 0,0 l/m 0 min 0 min 0,000 mm 0,0 UV-I 0 W/m 0,0 km/h (0 Bft)
29.12.2012 10:28 15,0 C 10,7 C 6,3 C 91 % 1014,5 hPa 0,0 l/m 0 min 0 min 0,000 mm 0,0 UV-I 0 W/m 0,0 km/h (0 Bft)
29.12.2012 10:30 15,0 C 10,6 C 6,3 C 90 % 1014,5 hPa 0,0 l/m 0 min 0 min 0,000 mm 0,0 UV-I 0 W/m 0,0 km/h (0 Bft)
29.12.2012 10:32 15,0 C 10,7 C 6,2 C 90 % 1014,5 hPa 0,0 l/m 0 min 0 min 0,000 mm 0,0 UV-I 0 W/m 0,0 km/h (0 Bft)
29.12.2012 10:34 15,0 C 10,7 C 6,3 C 90 % 1014,5 hPa 0,0 l/m 0 min 0 min 0,000 mm 0,0 UV-I 0 W/m 0,0 km/h (0 Bft)
29.12.2012 10:36 15,0 C 10,6 C 6,2 C 90 % 1014,7 hPa 0,0 l/m 0 min 0 min 0,000 mm 0,0 UV-I 0 W/m 0,0 km/h (0 Bft)
29.12.2012 10:38 15,0 C 10,7 C 6,2 C 90 % 1014,7 hPa 0,0 l/m 0 min 0 min 0,000 mm 0,0 UV-I 0 W/m 0,0 km/h (0 Bft)
29.12.2012 10:40 15,0 C 10,7 C 6,2 C 90 % 1014,7 hPa 0,0 l/m 0 min 0 min 0,000 mm 0,0 UV-I 0 W/m 0,0 km/h (0 Bft)
29.12.2012 10:42 15,0 C 10,7 C 6,2 C 90 % 1014,7 hPa 0,0 l/m 0 min 0 min 0,000 mm 0,0 UV-I 0 W/m 0,0 km/h (0 Bft)
29.12.2012 10:44 15,0 C 10,7 C 6,2 C 90 % 1014,7 hPa 0,0 l/m 0 min 0 min 0,000 mm 0,0 UV-I 0 W/m 0,0 km/h (0 Bft)
29.12.2012 10:46 15,0 C 10,7 C 6,2 C 90 % 1014,7 hPa 0,0 l/m 0 min 0 min 0,000 mm 0,0 UV-I 0 W/m 0,0 km/h (0 Bft)
29.12.2012 10:48 15,0 C 10,7 C 6,2 C 90 % 1014,7 hPa 0,0 l/m 0 min 0 min 0,000 mm 0,0 UV-I 0 W/m 0,0 km/h (0 Bft)
29.12.2012 10:50 15,0 C 10,7 C 6,2 C 90 % 1014,7 hPa 0,0 l/m 0 min 0 min 0,000 mm 0,0 UV-I 0 W/m 0,0 km/h (0 Bft)
29.12.2012 10:52 15,0 C 10,9 C 6,3 C 90 % 1014,7 hPa 0,0 l/m 0 min 0 min 0,000 mm 0,0 UV-I 0 W/m 0,0 km/h (0 Bft)
29.12.2012 10:54 15,0 C 10,8 C 6,2 C 90 % 1014,7 hPa 0,0 l/m 0 min 0 min 0,000 mm 0,0 UV-I 0 W/m 0,0 km/h (0 Bft)
29.12.2012 10:56 15,0 C 10,9 C 6,3 C 89 % 1014,2 hPa 0,0 l/m 0 min 0 min 0,000 mm 0,0 UV-I 0 W/m 0,0 km/h (0 Bft)
29.12.2012 10:58 15,0 C 10,9 C 6,2 C 89 % 1014,2 hPa 0,0 l/m 0 min 0 min 0,000 mm 0,1 UV-I 0 W/m 0,0 km/h (0 Bft)
29.12.2012 11:00 15,0 C 10,8 C 6,2 C 89 % 1014,2 hPa 0,0 l/m 0 min 0 min 0,000 mm 0,1 UV-I 0 W/m 0,0 km/h (0 Bft)
29.12.2012 11:02 15,0 C 10,8 C 6,2 C 89 % 1014,2 hPa 0,0 l/m 0 min 0 min 0,000 mm 0,1 UV-I 0 W/m 0,0 km/h (0 Bft)
29.12.2012 11:06 15,0 C 11,1 C 6,2 C 89 % 1014,2 hPa 0,0 l/m 0 min 0 min 0,000 mm 0,1 UV-I 0 W/m 0,0 km/h (0 Bft)
29.12.2012 11:08 15,0 C 11,1 C 6,2 C 88 % 1014,2 hPa 0,0 l/m 0 min 0 min 0,000 mm 0,1 UV-I 0 W/m 0,0 km/h (0 Bft)
29.12.2012 11:10 15,0 C 11,1 C 6,3 C 88 % 1014,2 hPa 0,0 l/m 0 min 0 min 0,000 mm 0,1 UV-I 0 W/m 0,0 km/h (0 Bft)
29.12.2012 11:12 14,9 C 11,0 C 6,2 C 88 % 1014,2 hPa 0,0 l/m 0 min 0 min 0,000 mm 0,1 UV-I 0 W/m 0,0 km/h (0 Bft)
29.12.2012 11:14 14,9 C 11,1 C 6,3 C 88 % 1014,2 hPa 0,0 l/m 0 min 0 min 0,000 mm 0,1 UV-I 0 W/m 0,0 km/h (0 Bft)
29.12.2012 11:16 14,9 C 11,2 C 6,2 C 88 % 1013,8 hPa 0,0 l/m 0 min 0 min 0,000 mm 0,1 UV-I 0 W/m 0,0 km/h (0 Bft)
29.12.2012 11:18 14,9 C 11,2 C 6,3 C 88 % 1013,8 hPa 0,0 l/m 0 min 0 min 0,000 mm 0,0 UV-I 0 W/m 0,0 km/h (0 Bft)
29.12.2012 11:20 14,9 C 11,2 C 6,5 C 88 % 1013,8 hPa 0,0 l/m 0 min 0 min 0,000 mm 0,0 UV-I 0 W/m 0,0 km/h (0 Bft)
29.12.2012 11:22 14,9 C 11,3 C 6,6 C 88 % 1013,8 hPa 0,0 l/m 0 min 0 min 0,000 mm 0,0 UV-I 0 W/m 0,0 km/h (0 Bft)
29.12.2012 11:24 14,9 C 11,5 C 6,9 C 88 % 1013,8 hPa 0,0 l/m 0 min 0 min 0,000 mm 0,0 UV-I 0 W/m 0,0 km/h (0 Bft)
29.12.2012 11:26 14,9 C 11,4 C 7,1 C 88 % 1013,8 hPa 0,0 l/m 0 min 0 min 0,000 mm 0,0 UV-I 0 W/m 0,0 km/h (0 Bft)
29.12.2012 11:28 15,1 C 11,5 C 7,3 C 88 % 1013,8 hPa 0,0 l/m 0 min 0 min 0,000 mm 0,0 UV-I 0 W/m 0,0 km/h (0 Bft)
29.12.2012 11:30 15,1 C 11,5 C 7,3 C 88 % 1013,8 hPa 0,0 l/m 0 min 0 min 0,000 mm 0,0 UV-I 0 W/m 0,0 km/h (0 Bft)
29.12.2012 11:32 15,1 C 11,4 C 7,4 C 88 % 1013,8 hPa 0,1 l/m 0 min 0 min 0,000 mm 0,0 UV-I 0 W/m 0,0 km/h (0 Bft)
29.12.2012 11:35 16,3 C 11,1 C 9,7 C 87 % 1013,9 hPa 0,0 l/m 2 min 0 min 0,000 mm 0,0 UV-I 162 W/m 32,2 km/h (5 Bft)
29.12.2012 11:40 16,3 C 11,2 C 9,7 C 86 % 1013,8 hPa 0,0 l/m 2 min 0 min 0,000 mm 0,0 UV-I 172 W/m 45,1 km/h (6 Bft)
29.12.2012 11:45 16,3 C 11,2 C 9,7 C 86 % 1013,7 hPa 0,0 l/m 2 min 0 min 0,000 mm 0,0 UV-I 199 W/m 38,6 km/h (5 Bft)
29.12.2012 11:50 16,3 C 11,4 C 9,7 C 85 % 1013,5 hPa 0,0 l/m 2 min 0 min 0,000 mm 0,0 UV-I 241 W/m 35,4 km/h (5 Bft)
29.12.2012 11:55 16,3 C 11,6 C 10,2 C 84 % 1013,5 hPa 0,0 l/m 2 min 0 min 0,000 mm 0,0 UV-I 313 W/m 48,3 km/h (6 Bft)
29.12.2012 12:00 16,3 C 11,8 C 10,8 C 84 % 1013,4 hPa 0,0 l/m 2 min 0 min 0,076 mm 0,0 UV-I 294 W/m 48,3 km/h (6 Bft)
29.12.2012 12:05 16,3 C 11,9 C 10,8 C 82 % 1013,3 hPa 0,0 l/m 2 min 0 min 0,000 mm 0,0 UV-I 258 W/m 45,1 km/h (6 Bft)
29.12.2012 12:10 16,3 C 12,1 C 10,8 C 82 % 1013,3 hPa 0,0 l/m 2 min 0 min 0,000 mm 0,0 UV-I 236 W/m 48,3 km/h (6 Bft)
29.12.2012 12:15 16,3 C 12,2 C 10,8 C 81 % 1013,2 hPa 0,0 l/m 2 min 0 min 0,000 mm 0,0 UV-I 294 W/m 61,1 km/h (7 Bft)
29.12.2012 12:20 16,5 C 12,3 C 10,8 C 81 % 1013,1 hPa 0,0 l/m 2 min 0 min 0,000 mm 0,0 UV-I 318 W/m 48,3 km/h (6 Bft)
29.12.2012 12:25 16,3 C 12,3 C 10,8 C 81 % 1013,1 hPa 0,0 l/m 2 min 0 min 0,000 mm 0,0 UV-I 248 W/m 45,1 km/h (6 Bft)
29.12.2012 12:30 16,3 C 12,3 C 10,8 C 81 % 1012,8 hPa 0,0 l/m 2 min 0 min 0,000 mm 0,0 UV-I 274 W/m 45,1 km/h (6 Bft)
29.12.2012 12:35 16,3 C 12,3 C 10,2 C 81 % 1012,9 hPa 0,0 l/m 2 min 0 min 0,000 mm 0,0 UV-I 160 W/m 41,9 km/h (6 Bft)
29.12.2012 12:40 16,4 C 12,2 C 9,7 C 81 % 1012,8 hPa 0,0 l/m 0 min 0 min 0,000 mm 0,0 UV-I 120 W/m 35,4 km/h (5 Bft)
29.12.2012 12:45 16,3 C 12,1 C 9,1 C 81 % 1012,8 hPa 0,0 l/m 0 min 0 min 0,000 mm 0,0 UV-I 109 W/m 35,4 km/h (5 Bft)
29.12.2012 12:50 16,3 C 12,0 C 9,1 C 82 % 1012,7 hPa 0,0 l/m 0 min 0 min 0,000 mm 0,0 UV-I 104 W/m 38,6 km/h (5 Bft)
29.12.2012 12:55 16,4 C 11,9 C 9,1 C 82 % 1012,4 hPa 0,0 l/m 0 min 2 min 0,000 mm 0,0 UV-I 139 W/m 35,4 km/h (5 Bft)
29.12.2012 13:00 16,3 C 11,9 C 9,1 C 82 % 1012,3 hPa 0,0 l/m 2 min 0 min 0,102 mm 0,0 UV-I 169 W/m 45,1 km/h (6 Bft)
29.12.2012 13:05 16,3 C 11,9 C 9,1 C 82 % 1012,2 hPa 0,0 l/m 2 min 0 min 0,000 mm 0,0 UV-I 185 W/m 41,9 km/h (6 Bft)
29.12.2012 13:10 16,5 C 11,9 C 9,1 C 83 % 1012,1 hPa 0,0 l/m 2 min 0 min 0,000 mm 0,0 UV-I 202 W/m 41,9 km/h (6 Bft)
29.12.2012 13:15 16,4 C 11,9 C 9,1 C 83 % 1012,1 hPa 0,0 l/m 2 min 0 min 0,000 mm 0,0 UV-I 172 W/m 35,4 km/h (5 Bft)
29.12.2012 13:20 16,4 C 11,9 C 9,1 C 83 % 1012,0 hPa 0,0 l/m 2 min 0 min 0,000 mm 0,0 UV-I 179 W/m 45,1 km/h (6 Bft)
29.12.2012 13:25 16,3 C 11,9 C 9,7 C 83 % 1011,9 hPa 0,0 l/m 2 min 0 min 0,000 mm 0,0 UV-I 183 W/m 25,8 km/h (4 Bft)
29.12.2012 13:30 16,4 C 12,0 C 9,7 C 83 % 1011,7 hPa 0,0 l/m 2 min 0 min 0,000 mm 0,0 UV-I 165 W/m 38,6 km/h (5 Bft)
29.12.2012 13:35 16,4 C 12,1 C 9,7 C 82 % 1011,6 hPa 0,0 l/m 2 min 0 min 0,000 mm 0,0 UV-I 214 W/m 35,4 km/h (5 Bft)
29.12.2012 13:40 16,4 C 12,1 C 9,7 C 81 % 1011,6 hPa 0,0 l/m 2 min 0 min 0,000 mm 0,0 UV-I 213 W/m 41,9 km/h (6 Bft)
29.12.2012 13:45 16,5 C 12,2 C 9,7 C 81 % 1011,5 hPa 0,0 l/m 2 min 0 min 0,000 mm 0,0 UV-I 225 W/m 45,1 km/h (6 Bft)
29.12.2012 13:50 16,3 C 12,2 C 9,7 C 81 % 1011,3 hPa 0,0 l/m 2 min 0 min 0,000 mm 0,0 UV-I 202 W/m 45,1 km/h (6 Bft)
29.12.2012 13:55 16,2 C 12,2 C 9,7 C 81 % 1011,2 hPa 0,0 l/m 2 min 0 min 0,000 mm 0,0 UV-I 183 W/m 45,1 km/h (6 Bft)
29.12.2012 14:00 16,2 C 12,1 C 9,1 C 81 % 1011,1 hPa 0,0 l/m 0 min 0 min 0,102 mm 0,0 UV-I 114 W/m 51,5 km/h (7 Bft)
29.12.2012 14:05 16,2 C 11,9 C 9,1 C 81 % 1011,0 hPa 0,0 l/m 2 min 0 min 0,000 mm 0,0 UV-I 142 W/m 41,9 km/h (6 Bft)
29.12.2012 14:10 16,2 C 11,8 C 9,1 C 81 % 1010,8 hPa 0,0 l/m 2 min 0 min 0,000 mm 0,0 UV-I 193 W/m 41,9 km/h (6 Bft)
29.12.2012 14:15 16,2 C 11,8 C 9,1 C 81 % 1010,7 hPa 0,0 l/m 2 min 0 min 0,000 mm 0,0 UV-I 246 W/m 51,5 km/h (7 Bft)
29.12.2012 14:20 16,4 C 11,8 C 9,1 C 81 % 1010,5 hPa 0,0 l/m 2 min 0 min 0,000 mm 0,0 UV-I 246 W/m 45,1 km/h (6 Bft)
29.12.2012 14:25 16,3 C 11,9 C 9,1 C 81 % 1010,4 hPa 0,0 l/m 2 min 0 min 0,000 mm 0,0 UV-I 225 W/m 51,5 km/h (7 Bft)
29.12.2012 14:30 16,3 C 11,8 C 9,1 C 81 % 1010,4 hPa 0,0 l/m 2 min 0 min 0,000 mm 0,0 UV-I 216 W/m 41,9 km/h (6 Bft)
29.12.2012 14:35 16,4 C 11,8 C 9,1 C 81 % 1010,4 hPa 0,0 l/m 0 min 0 min 0,000 mm 0,0 UV-I 65 W/m 51,5 km/h (7 Bft)
29.12.2012 14:40 16,4 C 11,7 C 8,6 C 80 % 1010,3 hPa 0,0 l/m 0 min 0 min 0,000 mm 0,0 UV-I 44 W/m 54,7 km/h (7 Bft)
29.12.2012 14:45 16,4 C 11,6 C 8,6 C 81 % 1010,1 hPa 0,0 l/m 0 min 0 min 0,000 mm 0,0 UV-I 30 W/m 38,6 km/h (5 Bft)
29.12.2012 14:50 16,3 C 11,4 C 8,0 C 81 % 1010,1 hPa 0,0 l/m 0 min 0 min 0,000 mm 0,0 UV-I 35 W/m 32,2 km/h (5 Bft)
29.12.2012 14:55 16,4 C 11,3 C 8,0 C 81 % 1009,9 hPa 0,0 l/m 0 min 0 min 0,000 mm 0,0 UV-I 42 W/m 35,4 km/h (5 Bft)
29.12.2012 15:00 16,4 C 11,2 C 8,0 C 82 % 1009,8 hPa 0,0 l/m 0 min 0 min 0,076 mm 0,0 UV-I 42 W/m 45,1 km/h (6 Bft)
29.12.2012 15:05 16,3 C 11,1 C 8,0 C 82 % 1009,9 hPa 0,0 l/m 0 min 0 min 0,000 mm 0,0 UV-I 44 W/m 41,9 km/h (6 Bft)
29.12.2012 15:10 16,5 C 11,1 C 8,6 C 82 % 1009,6 hPa 0,0 l/m 0 min 0 min 0,000 mm 0,0 UV-I 46 W/m 35,4 km/h (5 Bft)
29.12.2012 15:15 16,3 C 11,1 C 8,6 C 82 % 1009,7 hPa 0,0 l/m 0 min 0 min 0,000 mm 0,0 UV-I 42 W/m 41,9 km/h (6 Bft)
29.12.2012 15:20 16,3 C 11,0 C 8,6 C 82 % 1009,7 hPa 0,0 l/m 0 min 0 min 0,000 mm 0,0 UV-I 46 W/m 45,1 km/h (6 Bft)
29.12.2012 15:25 16,3 C 11,0 C 8,6 C 82 % 1009,9 hPa 0,0 l/m 0 min 0 min 0,000 mm 0,0 UV-I 46 W/m 35,4 km/h (5 Bft)
29.12.2012 15:30 16,3 C 11,0 C 8,6 C 82 % 1009,8 hPa 0,0 l/m 0 min 0 min 0,000 mm 0,0 UV-I 46 W/m 54,7 km/h (7 Bft)
29.12.2012 15:35 16,3 C 11,1 C 8,0 C 82 % 1009,8 hPa 0,0 l/m 0 min 0 min 0,000 mm 0,0 UV-I 37 W/m 35,4 km/h (5 Bft)
29.12.2012 15:40 16,3 C 11,0 C 8,0 C 82 % 1009,7 hPa 0,0 l/m 0 min 0 min 0,000 mm 0,0 UV-I 32 W/m 38,6 km/h (5 Bft)
29.12.2012 15:45 16,4 C 11,0 C 8,0 C 82 % 1009,6 hPa 0,0 l/m 0 min 0 min 0,000 mm 0,0 UV-I 26 W/m 35,4 km/h (5 Bft)
29.12.2012 15:50 16,3 C 10,9 C 8,0 C 82 % 1009,5 hPa 0,0 l/m 0 min 0 min 0,000 mm 0,0 UV-I 21 W/m 38,6 km/h (5 Bft)
29.12.2012 15:55 16,3 C 10,9 C 8,0 C 82 % 1009,3 hPa 0,0 l/m 0 min 0 min 0,000 mm 0,0 UV-I 18 W/m 32,2 km/h (5 Bft)
29.12.2012 16:00 16,4 C 10,9 C 8,0 C 83 % 1009,3 hPa 0,0 l/m 0 min 0 min 0,025 mm 0,0 UV-I 16 W/m 41,9 km/h (6 Bft)
29.12.2012 16:05 16,3 C 10,9 C 8,0 C 83 % 1009,2 hPa 0,0 l/m 0 min 0 min 0,000 mm 0,0 UV-I 12 W/m 35,4 km/h (5 Bft)
29.12.2012 16:10 16,2 C 10,9 C 8,0 C 83 % 1009,0 hPa 0,0 l/m 0 min 0 min 0,000 mm 0,0 UV-I 9 W/m 35,4 km/h (5 Bft)
29.12.2012 16:15 16,2 C 10,9 C 8,0 C 83 % 1009,0 hPa 0,0 l/m 0 min 0 min 0,000 mm 0,0 UV-I 9 W/m 38,6 km/h (5 Bft)
29.12.2012 16:20 16,3 C 10,8 C 8,0 C 83 % 1008,9 hPa 0,0 l/m 2 min 0 min 0,000 mm 0,0 UV-I 9 W/m 41,9 km/h (6 Bft)
29.12.2012 16:25 16,2 C 10,8 C 8,0 C 84 % 1008,8 hPa 0,0 l/m 0 min 0 min 0,000 mm 0,0 UV-I 7 W/m 45,1 km/h (6 Bft)
29.12.2012 16:30 16,2 C 10,8 C 8,0 C 83 % 1008,7 hPa 0,0 l/m 0 min 0 min 0,000 mm 0,0 UV-I 0 W/m 48,3 km/h (6 Bft)
29.12.2012 16:35 16,4 C 10,8 C 8,0 C 84 % 1008,6 hPa 0,0 l/m 0 min 0 min 0,000 mm 0,0 UV-I 0 W/m 54,7 km/h (7 Bft)
29.12.2012 16:40 16,2 C 10,7 C 8,0 C 84 % 1008,6 hPa 0,0 l/m 0 min 0 min 0,000 mm 0,0 UV-I 0 W/m 41,9 km/h (6 Bft)
29.12.2012 16:45 16,2 C 10,7 C 8,0 C 84 % 1008,5 hPa 0,0 l/m 0 min 0 min 0,000 mm 0,0 UV-I 0 W/m 48,3 km/h (6 Bft)
29.12.2012 16:50 16,2 C 10,7 C 8,0 C 84 % 1008,5 hPa 0,0 l/m 0 min 0 min 0,000 mm 0,0 UV-I 0 W/m 38,6 km/h (5 Bft)
29.12.2012 16:55 16,2 C 10,7 C 8,0 C 84 % 1008,4 hPa 0,0 l/m 0 min 0 min 0,000 mm 0,0 UV-I 0 W/m 41,9 km/h (6 Bft)
29.12.2012 17:00 16,2 C 10,7 C 8,0 C 84 % 1008,3 hPa 0,0 l/m 0 min 0 min 0,025 mm 0,0 UV-I 0 W/m 41,9 km/h (6 Bft)
29.12.2012 17:05 16,2 C 10,7 C 8,0 C 84 % 1008,1 hPa 0,0 l/m 0 min 0 min 0,000 mm 0,0 UV-I 0 W/m 38,6 km/h (5 Bft)
29.12.2012 17:10 16,3 C 10,7 C 8,0 C 84 % 1008,0 hPa 0,0 l/m 0 min 0 min 0,000 mm 0,0 UV-I 0 W/m 51,5 km/h (7 Bft)
29.12.2012 17:15 16,2 C 10,8 C 8,0 C 84 % 1008,1 hPa 0,0 l/m 0 min 0 min 0,000 mm 0,0 UV-I 0 W/m 48,3 km/h (6 Bft)
29.12.2012 17:20 16,2 C 10,8 C 8,0 C 83 % 1007,9 hPa 0,0 l/m 0 min 0 min 0,000 mm 0,0 UV-I 0 W/m 41,9 km/h (6 Bft)
29.12.2012 17:25 16,3 C 10,8 C 8,0 C 83 % 1007,9 hPa 0,0 l/m 0 min 0 min 0,000 mm 0,0 UV-I 0 W/m 48,3 km/h (6 Bft)
29.12.2012 17:30 16,2 C 10,8 C 8,0 C 83 % 1008,0 hPa 0,0 l/m 0 min 0 min 0,000 mm 0,0 UV-I 0 W/m 45,1 km/h (6 Bft)
29.12.2012 17:35 16,2 C 10,8 C 8,0 C 83 % 1007,9 hPa 0,0 l/m 0 min 0 min 0,000 mm 0,0 UV-I 0 W/m 32,2 km/h (5 Bft)
29.12.2012 17:40 16,2 C 10,8 C 8,0 C 83 % 1008,0 hPa 0,0 l/m 0 min 0 min 0,000 mm 0,0 UV-I 0 W/m 41,9 km/h (6 Bft)
29.12.2012 17:45 16,3 C 10,8 C 8,0 C 83 % 1008,1 hPa 0,0 l/m 0 min 0 min 0,000 mm 0,0 UV-I 0 W/m 35,4 km/h (5 Bft)
29.12.2012 17:50 16,2 C 10,8 C 8,0 C 83 % 1008,1 hPa 0,0 l/m 0 min 0 min 0,000 mm 0,0 UV-I 0 W/m 48,3 km/h (6 Bft)
29.12.2012 17:55 16,2 C 10,8 C 8,0 C 83 % 1008,1 hPa 0,0 l/m 0 min 0 min 0,000 mm 0,0 UV-I 0 W/m 45,1 km/h (6 Bft)
29.12.2012 18:00 16,4 C 10,8 C 8,0 C 83 % 1008,1 hPa 0,0 l/m 0 min 0 min 0,025 mm 0,0 UV-I 0 W/m 38,6 km/h (5 Bft)
29.12.2012 18:05 16,2 C 10,8 C 8,0 C 83 % 1008,0 hPa 0,0 l/m 0 min 0 min 0,000 mm 0,0 UV-I 0 W/m 35,4 km/h (5 Bft)
29.12.2012 18:10 16,2 C 10,7 C 8,0 C 83 % 1008,0 hPa 0,0 l/m 0 min 0 min 0,000 mm 0,0 UV-I 0 W/m 51,5 km/h (7 Bft)
29.12.2012 18:15 16,2 C 10,7 C 7,4 C 83 % 1007,9 hPa 0,0 l/m 0 min 0 min 0,000 mm 0,0 UV-I 0 W/m 38,6 km/h (5 Bft)
29.12.2012 18:20 16,2 C 10,7 C 8,0 C 83 % 1008,0 hPa 0,0 l/m 0 min 0 min 0,000 mm 0,0 UV-I 0 W/m 38,6 km/h (5 Bft)
29.12.2012 18:25 16,2 C 10,7 C 8,0 C 83 % 1008,0 hPa 0,0 l/m 0 min 0 min 0,000 mm 0,0 UV-I 0 W/m 41,9 km/h (6 Bft)
29.12.2012 18:30 16,2 C 10,7 C 7,4 C 83 % 1007,9 hPa 0,0 l/m 0 min 0 min 0,000 mm 0,0 UV-I 0 W/m 29,0 km/h (5 Bft)
29.12.2012 18:35 16,3 C 10,6 C 7,4 C 83 % 1008,0 hPa 0,0 l/m 0 min 0 min 0,000 mm 0,0 UV-I 0 W/m 29,0 km/h (5 Bft)
29.12.2012 18:40 16,2 C 10,6 C 7,4 C 83 % 1008,0 hPa 0,0 l/m 0 min 0 min 0,000 mm 0,0 UV-I 0 W/m 25,8 km/h (4 Bft)
29.12.2012 18:45 16,2 C 10,5 C 7,4 C 83 % 1008,0 hPa 0,0 l/m 0 min 0 min 0,000 mm 0,0 UV-I 0 W/m 35,4 km/h (5 Bft)
29.12.2012 18:50 16,3 C 10,4 C 7,4 C 83 % 1008,0 hPa 0,0 l/m 0 min 0 min 0,000 mm 0,0 UV-I 0 W/m 19,4 km/h (3 Bft)
29.12.2012 18:55 16,2 C 10,4 C 6,9 C 83 % 1008,0 hPa 0,0 l/m 0 min 0 min 0,000 mm 0,0 UV-I 0 W/m 25,8 km/h (4 Bft)
29.12.2012 19:00 16,2 C 10,3 C 6,9 C 83 % 1007,9 hPa 0,0 l/m 0 min 0 min 0,025 mm 0,0 UV-I 0 W/m 32,2 km/h (5 Bft)
29.12.2012 19:05 16,2 C 10,3 C 6,9 C 83 % 1007,8 hPa 0,0 l/m 0 min 0 min 0,000 mm 0,0 UV-I 0 W/m 29,0 km/h (5 Bft)
29.12.2012 19:10 16,3 C 10,2 C 6,9 C 83 % 1007,9 hPa 0,0 l/m 0 min 0 min 0,000 mm 0,0 UV-I 0 W/m 22,6 km/h (4 Bft)
29.12.2012 19:15 16,2 C 10,1 C 6,9 C 83 % 1007,8 hPa 0,0 l/m 0 min 0 min 0,000 mm 0,0 UV-I 0 W/m 25,8 km/h (4 Bft)
29.12.2012 19:20 16,2 C 10,1 C 6,9 C 83 % 1007,8 hPa 0,0 l/m 0 min 0 min 0,000 mm 0,0 UV-I 0 W/m 19,4 km/h (3 Bft)
29.12.2012 19:25 16,4 C 10,0 C 6,9 C 83 % 1007,9 hPa 0,0 l/m 0 min 0 min 0,000 mm 0,0 UV-I 0 W/m 16,2 km/h (3 Bft)
29.12.2012 19:30 16,3 C 9,9 C 6,3 C 83 % 1008,0 hPa 0,0 l/m 0 min 0 min 0,000 mm 0,0 UV-I 0 W/m 16,2 km/h (3 Bft)
29.12.2012 19:35 16,2 C 9,9 C 6,9 C 83 % 1007,9 hPa 0,0 l/m 0 min 0 min 0,000 mm 0,0 UV-I 0 W/m 16,2 km/h (3 Bft)
29.12.2012 19:40 16,2 C 9,9 C 6,9 C 82 % 1007,9 hPa 0,0 l/m 0 min 0 min 0,000 mm 0,0 UV-I 0 W/m 19,4 km/h (3 Bft)
29.12.2012 19:45 16,3 C 9,9 C 6,9 C 82 % 1007,9 hPa 0,0 l/m 0 min 0 min 0,000 mm 0,0 UV-I 0 W/m 12,8 km/h (3 Bft)
29.12.2012 19:50 16,3 C 9,9 C 6,9 C 81 % 1008,0 hPa 0,0 l/m 0 min 0 min 0,000 mm 0,0 UV-I 0 W/m 16,2 km/h (3 Bft)
29.12.2012 19:55 16,2 C 10,0 C 7,4 C 81 % 1007,9 hPa 0,0 l/m 0 min 0 min 0,000 mm 0,0 UV-I 0 W/m 29,0 km/h (5 Bft)
29.12.2012 20:00 16,3 C 10,2 C 7,4 C 80 % 1008,0 hPa 0,0 l/m 0 min 0 min 0,025 mm 0,0 UV-I 0 W/m 25,8 km/h (4 Bft)
29.12.2012 20:05 16,3 C 10,3 C 7,4 C 79 % 1007,9 hPa 0,0 l/m 0 min 0 min 0,000 mm 0,0 UV-I 0 W/m 25,8 km/h (4 Bft)
29.12.2012 20:10 16,3 C 10,4 C 8,0 C 79 % 1008,0 hPa 0,0 l/m 0 min 0 min 0,000 mm 0,0 UV-I 0 W/m 22,6 km/h (4 Bft)
29.12.2012 20:15 16,4 C 10,5 C 7,4 C 79 % 1007,9 hPa 0,0 l/m 0 min 0 min 0,000 mm 0,0 UV-I 0 W/m 25,8 km/h (4 Bft)
29.12.2012 20:20 16,3 C 10,6 C 7,4 C 78 % 1007,9 hPa 0,0 l/m 0 min 0 min 0,000 mm 0,0 UV-I 0 W/m 22,6 km/h (4 Bft)
29.12.2012 20:25 16,2 C 10,6 C 7,4 C 78 % 1007,9 hPa 0,0 l/m 0 min 0 min 0,000 mm 0,0 UV-I 0 W/m 35,4 km/h (5 Bft)
29.12.2012 20:30 16,2 C 10,7 C 7,4 C 78 % 1007,9 hPa 0,0 l/m 0 min 0 min 0,000 mm 0,0 UV-I 0 W/m 29,0 km/h (5 Bft)
29.12.2012 20:35 16,3 C 10,7 C 8,0 C 78 % 1007,9 hPa 0,0 l/m 0 min 0 min 0,000 mm 0,0 UV-I 0 W/m 25,8 km/h (4 Bft)
29.12.2012 20:40 16,2 C 10,7 C 7,4 C 79 % 1007,8 hPa 0,0 l/m 0 min 0 min 0,000 mm 0,0 UV-I 0 W/m 25,8 km/h (4 Bft)
29.12.2012 20:45 16,2 C 10,7 C 8,0 C 79 % 1007,8 hPa 0,0 l/m 0 min 0 min 0,000 mm 0,0 UV-I 0 W/m 25,8 km/h (4 Bft)
29.12.2012 20:50 16,4 C 10,7 C 7,4 C 79 % 1007,8 hPa 0,0 l/m 0 min 0 min 0,000 mm 0,0 UV-I 0 W/m 22,6 km/h (4 Bft)
29.12.2012 20:55 16,2 C 10,7 C 7,4 C 79 % 1007,8 hPa 0,0 l/m 0 min 0 min 0,000 mm 0,0 UV-I 0 W/m 25,8 km/h (4 Bft)
29.12.2012 21:00 16,2 C 10,8 C 8,0 C 79 % 1007,8 hPa 0,0 l/m 0 min 0 min 0,025 mm 0,0 UV-I 0 W/m 29,0 km/h (5 Bft)
29.12.2012 21:05 16,1 C 10,8 C 8,0 C 78 % 1007,8 hPa 0,0 l/m 0 min 0 min 0,000 mm 0,0 UV-I 0 W/m 35,4 km/h (5 Bft)
29.12.2012 21:10 16,2 C 10,9 C 8,6 C 78 % 1007,9 hPa 0,0 l/m 0 min 0 min 0,000 mm 0,0 UV-I 0 W/m 38,6 km/h (5 Bft)
29.12.2012 21:15 16,1 C 11,0 C 8,6 C 78 % 1007,9 hPa 0,0 l/m 0 min 0 min 0,000 mm 0,0 UV-I 0 W/m 22,6 km/h (4 Bft)
29.12.2012 21:20 16,1 C 11,1 C 8,6 C 78 % 1007,9 hPa 0,0 l/m 0 min 0 min 0,000 mm 0,0 UV-I 0 W/m 48,3 km/h (6 Bft)
29.12.2012 21:25 16,2 C 11,2 C 8,6 C 78 % 1007,9 hPa 0,0 l/m 0 min 0 min 0,000 mm 0,0 UV-I 0 W/m 22,6 km/h (4 Bft)
29.12.2012 21:30 16,1 C 11,2 C 8,6 C 77 % 1007,9 hPa 0,0 l/m 0 min 0 min 0,000 mm 0,0 UV-I 0 W/m 35,4 km/h (5 Bft)
29.12.2012 21:35 16,1 C 11,3 C 8,6 C 77 % 1007,9 hPa 0,0 l/m 0 min 0 min 0,000 mm 0,0 UV-I 0 W/m 35,4 km/h (5 Bft)
29.12.2012 21:40 16,2 C 11,4 C 8,6 C 77 % 1008,0 hPa 0,0 l/m 0 min 0 min 0,000 mm 0,0 UV-I 0 W/m 32,2 km/h (5 Bft)
29.12.2012 21:45 16,1 C 11,4 C 8,6 C 77 % 1008,1 hPa 0,0 l/m 0 min 0 min 0,000 mm 0,0 UV-I 0 W/m 19,4 km/h (3 Bft)
29.12.2012 21:50 16,1 C 11,5 C 8,6 C 77 % 1008,0 hPa 0,0 l/m 0 min 0 min 0,000 mm 0,0 UV-I 0 W/m 25,8 km/h (4 Bft)
29.12.2012 21:55 16,1 C 11,5 C 8,6 C 77 % 1008,0 hPa 0,0 l/m 0 min 0 min 0,000 mm 0,0 UV-I 0 W/m 25,8 km/h (4 Bft)
29.12.2012 22:00 16,1 C 11,6 C 8,6 C 77 % 1008,0 hPa 0,0 l/m 0 min 0 min 0,025 mm 0,0 UV-I 0 W/m 22,6 km/h (4 Bft)
29.12.2012 22:05 16,1 C 11,6 C 8,6 C 77 % 1008,0 hPa 0,0 l/m 0 min 0 min 0,000 mm 0,0 UV-I 0 W/m 19,4 km/h (3 Bft)
29.12.2012 22:10 16,1 C 11,5 C 8,6 C 77 % 1008,0 hPa 0,0 l/m 0 min 0 min 0,000 mm 0,0 UV-I 0 W/m 22,6 km/h (4 Bft)
29.12.2012 22:15 16,3 C 11,5 C 8,6 C 77 % 1008,0 hPa 0,0 l/m 0 min 0 min 0,000 mm 0,0 UV-I 0 W/m 16,2 km/h (3 Bft)
29.12.2012 22:20 16,2 C 11,5 C 8,6 C 77 % 1008,1 hPa 0,0 l/m 0 min 0 min 0,000 mm 0,0 UV-I 0 W/m 29,0 km/h (5 Bft)
29.12.2012 22:25 16,1 C 11,5 C 8,6 C 77 % 1008,1 hPa 0,0 l/m 0 min 0 min 0,000 mm 0,0 UV-I 0 W/m 32,2 km/h (5 Bft)
29.12.2012 22:30 16,1 C 11,6 C 8,6 C 77 % 1008,1 hPa 0,0 l/m 0 min 0 min 0,000 mm 0,0 UV-I 0 W/m 45,1 km/h (6 Bft)
29.12.2012 22:35 16,2 C 11,6 C 8,6 C 77 % 1008,1 hPa 0,0 l/m 0 min 0 min 0,000 mm 0,0 UV-I 0 W/m 25,8 km/h (4 Bft)
29.12.2012 22:40 16,1 C 11,6 C 8,6 C 77 % 1008,1 hPa 0,0 l/m 0 min 0 min 0,000 mm 0,0 UV-I 0 W/m 51,5 km/h (7 Bft)
29.12.2012 22:45 16,1 C 11,6 C 8,6 C 77 % 1008,2 hPa 0,0 l/m 0 min 0 min 0,000 mm 0,0 UV-I 0 W/m 35,4 km/h (5 Bft)
29.12.2012 22:50 16,2 C 11,6 C 9,1 C 77 % 1008,3 hPa 0,0 l/m 0 min 0 min 0,000 mm 0,0 UV-I 0 W/m 19,4 km/h (3 Bft)
29.12.2012 22:55 16,1 C 11,7 C 8,6 C 77 % 1008,2 hPa 0,0 l/m 0 min 0 min 0,000 mm 0,0 UV-I 0 W/m 41,9 km/h (6 Bft)
29.12.2012 23:00 16,1 C 11,7 C 9,1 C 76 % 1008,1 hPa 0,0 l/m 0 min 0 min 0,025 mm 0,0 UV-I 0 W/m 25,8 km/h (4 Bft)
29.12.2012 23:05 16,2 C 11,8 C 8,6 C 77 % 1008,2 hPa 0,0 l/m 0 min 0 min 0,000 mm 0,0 UV-I 0 W/m 35,4 km/h (5 Bft)
29.12.2012 23:10 16,1 C 11,8 C 8,6 C 77 % 1008,3 hPa 0,0 l/m 0 min 0 min 0,000 mm 0,0 UV-I 0 W/m 32,2 km/h (5 Bft)
29.12.2012 23:15 16,1 C 11,7 C 8,6 C 78 % 1008,4 hPa 0,0 l/m 0 min 0 min 0,000 mm 0,0 UV-I 0 W/m 35,4 km/h (5 Bft)
29.12.2012 23:20 16,1 C 11,7 C 8,6 C 78 % 1008,5 hPa 0,0 l/m 0 min 2 min 0,000 mm 0,0 UV-I 0 W/m 29,0 km/h (5 Bft)
29.12.2012 23:25 16,1 C 11,6 C 6,9 C 81 % 1008,8 hPa 0,2 l/m 0 min 2 min 0,000 mm 0,0 UV-I 0 W/m 22,6 km/h (4 Bft)
29.12.2012 23:30 16,1 C 11,2 C 6,3 C 84 % 1009,0 hPa 0,2 l/m 0 min 2 min 0,000 mm 0,0 UV-I 0 W/m 25,8 km/h (4 Bft)
29.12.2012 23:35 16,1 C 10,7 C 6,3 C 85 % 1008,9 hPa 0,0 l/m 0 min 2 min 0,000 mm 0,0 UV-I 0 W/m 16,2 km/h (3 Bft)
29.12.2012 23:42 16,1 C 10,2 C 6,3 C 88 % 1008,9 hPa 0,2 l/m 0 min 2 min 0,079 mm 0,0 UV-I 0 W/m 9,6 km/h (2 Bft)
29.12.2012 23:46 16,1 C 10,1 C 6,3 C 89 % 1009,0 hPa 0,0 l/m 0 min 2 min 0,000 mm 0,0 UV-I 0 W/m 9,6 km/h (2 Bft)
29.12.2012 23:48 16,1 C 9,9 C 6,3 C 89 % 1009,1 hPa 0,0 l/m 0 min 2 min 0,000 mm 0,0 UV-I 0 W/m 16,2 km/h (3 Bft)
29.12.2012 23:50 16,1 C 9,8 C 6,3 C 90 % 1009,0 hPa 0,2 l/m 0 min 2 min 0,000 mm 0,0 UV-I 0 W/m 19,4 km/h (3 Bft)
29.12.2012 23:52 16,1 C 9,8 C 6,3 C 90 % 1009,1 hPa 0,0 l/m 0 min 2 min 0,000 mm 0,0 UV-I 0 W/m 16,2 km/h (3 Bft)
29.12.2012 23:54 15,9 C 9,7 C 6,3 C 90 % 1009,1 hPa 0,0 l/m 0 min 2 min 0,000 mm 0,0 UV-I 0 W/m 12,8 km/h (3 Bft)
29.12.2012 23:56 16,1 C 9,7 C 6,3 C 91 % 1009,1 hPa 0,0 l/m 0 min 2 min 0,000 mm 0,0 UV-I 0 W/m 6,4 km/h (2 Bft)
29.12.2012 23:58 16,1 C 9,6 C 6,3 C 91 % 1009,0 hPa 0,0 l/m 0 min 2 min 0,000 mm 0,0 UV-I 0 W/m 12,8 km/h (3 Bft)
_ Min-Zeit 00:18 00:50 00:56 23:00 19:05 - - - - - - 00:00
Minimum _ 14,3 C 8,5 C 4,5 C 76 % 1007,8 hPa - - - - - - 0,0 km/h (0 Bft)
_ Max-Zeit 12:20 12:20 12:00 00:00 00:00 23:25 11:35 12:55 13:00 10:58 12:20 12:15
Maximum _ 16,5 C 12,3 C 10,8 C 96 % 1019,9 hPa 0,2 l/m 2 min 2 min 0,102 mm 0,1 UV-I 318 W/m 61,1 km/h
O-SO (7 Bft)
Durchschnitt _ 15,5 C 10,7 C 7,2 C 87 % 1012,9 hPa #1,0 l/m #1:04 h #26 min. #0,635 mm 0,1 UV-I 136 W/m 23,1 km/h (4 Bft)
© 2012 W. Hausmann